Wetterdaten: Donnerstag, 18.01.2018
Datum Zeit Temp. Aussen Temp. o. S. +5cm Feuchte Auss BlattFeu 1 Luftdruck Regen Sonnenschein Regendauer Solar Windben Empfang
18.01.2018 00:00 3,8 C 3,3 C 2,2 C 86 % 0 lf 1006,2 hPa 0,0 l/m 0 min 0 min 0 W/m 22,5 km/h (4 Bft) 95,74 %
18.01.2018 00:02 3,8 C 3,9 C 2,2 C 86 % 0 lf 1006,2 hPa 0,0 l/m 0 min 0 min 0 W/m 27,0 km/h (4 Bft) 96,67 %
18.01.2018 00:04 3,8 C 3,9 C 2,2 C 86 % 0 lf 1006,2 hPa 0,0 l/m 0 min 0 min 0 W/m 29,3 km/h (5 Bft) 93,48 %
18.01.2018 00:08 3,8 C 3,9 C 2,2 C 86 % 0 lf 1006,0 hPa 0,0 l/m 0 min 0 min 0 W/m 29,3 km/h (5 Bft) 96,23 %
18.01.2018 00:10 3,8 C 3,9 C 2,2 C 86 % 0 lf 1006,0 hPa 0,0 l/m 0 min 0 min 0 W/m 18,0 km/h (3 Bft) 93,62 %
18.01.2018 00:12 3,8 C 3,9 C 2,2 C 86 % 0 lf 1006,0 hPa 0,0 l/m 0 min 0 min 0 W/m 22,5 km/h (4 Bft) 95,65 %
18.01.2018 00:14 3,8 C 3,9 C 2,2 C 86 % 0 lf 1006,1 hPa 0,0 l/m 0 min 0 min 0 W/m 20,3 km/h (4 Bft) 97,87 %
18.01.2018 00:16 3,8 C 3,9 C 2,2 C 86 % 0 lf 1006,0 hPa 0,0 l/m 0 min 0 min 0 W/m 31,5 km/h (5 Bft) 93,62 %
18.01.2018 00:18 3,8 C 3,9 C 2,2 C 86 % 0 lf 1005,9 hPa 0,0 l/m 0 min 0 min 0 W/m 27,0 km/h (4 Bft) 93,62 %
18.01.2018 00:20 3,8 C 3,9 C 2,2 C 86 % 0 lf 1005,9 hPa 0,0 l/m 0 min 0 min 0 W/m 29,3 km/h (5 Bft) 93,62 %
18.01.2018 00:22 3,8 C 3,9 C 2,2 C 86 % 0 lf 1005,9 hPa 0,0 l/m 0 min 0 min 0 W/m 22,5 km/h (4 Bft) 97,87 %
18.01.2018 00:24 3,8 C 3,9 C 2,2 C 86 % 0 lf 1005,8 hPa 0,0 l/m 0 min 0 min 0 W/m 20,3 km/h (4 Bft) 97,83 %
18.01.2018 00:26 3,8 C 3,9 C 2,2 C 86 % 0 lf 1006,0 hPa 0,0 l/m 0 min 0 min 0 W/m 22,5 km/h (4 Bft) 100,00 %
18.01.2018 00:28 3,8 C 3,9 C 2,2 C 86 % 0 lf 1005,9 hPa 0,0 l/m 0 min 0 min 0 W/m 20,3 km/h (4 Bft) 100,00 %
18.01.2018 00:30 3,8 C 3,3 C 2,2 C 86 % 0 lf 1006,0 hPa 0,0 l/m 0 min 0 min 0 W/m 22,5 km/h (4 Bft) 95,74 %
18.01.2018 00:32 3,8 C 3,3 C 2,2 C 86 % 0 lf 1005,8 hPa 0,0 l/m 0 min 0 min 0 W/m 22,5 km/h (4 Bft) 100,00 %
18.01.2018 00:34 3,8 C 3,3 C 2,2 C 86 % 0 lf 1005,8 hPa 0,0 l/m 0 min 0 min 0 W/m 20,3 km/h (4 Bft) 100,00 %
18.01.2018 00:36 3,8 C 3,9 C 2,2 C 86 % 0 lf 1005,8 hPa 0,0 l/m 0 min 0 min 0 W/m 27,0 km/h (4 Bft) 97,83 %
18.01.2018 00:38 3,8 C 3,3 C 2,2 C 86 % 0 lf 1005,7 hPa 0,0 l/m 0 min 0 min 0 W/m 24,8 km/h (4 Bft) 97,87 %
18.01.2018 00:40 3,8 C 3,9 C 2,2 C 86 % 0 lf 1005,7 hPa 0,0 l/m 0 min 0 min 0 W/m 20,3 km/h (4 Bft) 95,74 %
18.01.2018 00:42 3,8 C 3,9 C 2,2 C 86 % 0 lf 1005,7 hPa 0,0 l/m 0 min 0 min 0 W/m 27,0 km/h (4 Bft) 95,74 %
18.01.2018 00:44 3,8 C 3,9 C 2,2 C 86 % 0 lf 1005,6 hPa 0,0 l/m 0 min 0 min 0 W/m 27,0 km/h (4 Bft) 95,74 %
18.01.2018 00:46 3,9 C 3,9 C 2,2 C 86 % 0 lf 1005,5 hPa 0,0 l/m 0 min 0 min 0 W/m 27,0 km/h (4 Bft) 91,67 %
18.01.2018 00:48 3,9 C 3,9 C 2,2 C 86 % 0 lf 1005,5 hPa 0,0 l/m 0 min 0 min 0 W/m 33,8 km/h (5 Bft) 93,48 %
18.01.2018 00:50 3,9 C 3,9 C 2,2 C 86 % 0 lf 1005,6 hPa 0,0 l/m 0 min 0 min 0 W/m 29,3 km/h (5 Bft) 89,36 %
18.01.2018 00:52 3,9 C 3,9 C 2,2 C 86 % 0 lf 1005,7 hPa 0,0 l/m 0 min 0 min 0 W/m 29,3 km/h (5 Bft) 93,62 %
18.01.2018 00:54 3,9 C 3,9 C 2,2 C 86 % 0 lf 1005,4 hPa 0,0 l/m 0 min 0 min 0 W/m 24,8 km/h (4 Bft) 91,49 %
18.01.2018 00:56 3,9 C 3,9 C 2,2 C 86 % 0 lf 1005,4 hPa 0,0 l/m 0 min 0 min 0 W/m 33,8 km/h (5 Bft) 93,62 %
18.01.2018 00:58 4,0 C 3,9 C 2,2 C 86 % 0 lf 1005,5 hPa 0,0 l/m 0 min 0 min 0 W/m 31,5 km/h (5 Bft) 93,48 %
18.01.2018 01:00 4,0 C 3,9 C 2,2 C 86 % 0 lf 1005,4 hPa 0,0 l/m 0 min 0 min 0 W/m 29,3 km/h (5 Bft) 93,62 %
18.01.2018 01:02 4,0 C 3,9 C 2,2 C 86 % 0 lf 1005,4 hPa 0,0 l/m 0 min 0 min 0 W/m 27,0 km/h (4 Bft) 93,62 %
18.01.2018 01:04 4,1 C 3,9 C 2,8 C 86 % 0 lf 1005,4 hPa 0,0 l/m 0 min 0 min 0 W/m 24,8 km/h (4 Bft) 93,62 %
18.01.2018 01:06 4,1 C 3,9 C 2,8 C 86 % 0 lf 1005,3 hPa 0,0 l/m 0 min 0 min 0 W/m 36,0 km/h (5 Bft) 95,74 %
18.01.2018 01:08 4,1 C 3,9 C 2,8 C 86 % 0 lf 1005,3 hPa 0,0 l/m 0 min 0 min 0 W/m 27,0 km/h (4 Bft) 93,62 %
18.01.2018 01:10 4,1 C 3,9 C 2,2 C 85 % 0 lf 1005,2 hPa 0,0 l/m 0 min 0 min 0 W/m 22,5 km/h (4 Bft) 93,48 %
18.01.2018 01:12 4,1 C 3,9 C 2,2 C 85 % 0 lf 1005,2 hPa 0,0 l/m 0 min 0 min 0 W/m 33,8 km/h (5 Bft) 93,62 %
18.01.2018 01:14 4,1 C 3,9 C 2,2 C 85 % 0 lf 1005,1 hPa 0,0 l/m 0 min 0 min 0 W/m 22,5 km/h (4 Bft) 95,74 %
18.01.2018 01:16 4,1 C 3,9 C 2,2 C 85 % 0 lf 1005,2 hPa 0,0 l/m 0 min 0 min 0 W/m 24,8 km/h (4 Bft) 93,75 %
18.01.2018 01:18 4,1 C 3,9 C 2,2 C 85 % 0 lf 1005,0 hPa 0,0 l/m 0 min 0 min 0 W/m 18,0 km/h (3 Bft) 95,65 %
18.01.2018 01:20 4,1 C 3,9 C 2,2 C 85 % 0 lf 1005,1 hPa 0,0 l/m 0 min 0 min 0 W/m 29,3 km/h (5 Bft) 95,74 %
18.01.2018 01:22 4,1 C 3,9 C 2,2 C 85 % 0 lf 1004,9 hPa 0,0 l/m 0 min 0 min 0 W/m 29,3 km/h (5 Bft) 93,62 %
18.01.2018 01:24 4,1 C 3,9 C 2,2 C 85 % 0 lf 1004,9 hPa 0,0 l/m 0 min 0 min 0 W/m 20,3 km/h (4 Bft) 95,74 %
18.01.2018 01:26 4,1 C 3,9 C 2,2 C 85 % 0 lf 1004,9 hPa 0,0 l/m 0 min 0 min 0 W/m 27,0 km/h (4 Bft) 97,87 %
18.01.2018 01:28 4,1 C 3,9 C 2,2 C 86 % 0 lf 1004,9 hPa 0,0 l/m 0 min 0 min 0 W/m 22,5 km/h (4 Bft) 97,83 %
18.01.2018 01:30 4,1 C 3,9 C 2,2 C 86 % 0 lf 1004,9 hPa 0,0 l/m 0 min 0 min 0 W/m 20,3 km/h (4 Bft) 97,87 %
18.01.2018 01:32 4,1 C 3,9 C 2,2 C 86 % 0 lf 1004,8 hPa 0,0 l/m 0 min 0 min 0 W/m 36,0 km/h (5 Bft) 97,87 %
18.01.2018 01:34 4,1 C 3,9 C 2,2 C 86 % 0 lf 1004,8 hPa 0,0 l/m 0 min 0 min 0 W/m 31,5 km/h (5 Bft) 97,87 %
18.01.2018 01:36 4,1 C 3,9 C 2,2 C 86 % 0 lf 1004,7 hPa 0,0 l/m 0 min 0 min 0 W/m 20,3 km/h (4 Bft) 95,74 %
18.01.2018 01:38 4,1 C 3,9 C 2,2 C 86 % 0 lf 1004,7 hPa 0,0 l/m 0 min 0 min 0 W/m 33,8 km/h (5 Bft) 95,74 %
18.01.2018 01:40 4,1 C 3,9 C 2,2 C 86 % 0 lf 1004,7 hPa 0,0 l/m 0 min 0 min 0 W/m 36,0 km/h (5 Bft) 97,83 %
18.01.2018 01:42 4,1 C 3,9 C 2,8 C 86 % 0 lf 1004,7 hPa 0,0 l/m 0 min 0 min 0 W/m 31,5 km/h (5 Bft) 97,87 %
18.01.2018 01:44 4,2 C 3,9 C 2,8 C 86 % 0 lf 1004,6 hPa 0,0 l/m 0 min 0 min 0 W/m 22,5 km/h (4 Bft) 93,62 %
18.01.2018 01:46 4,1 C 3,9 C 2,8 C 86 % 0 lf 1004,6 hPa 0,0 l/m 0 min 0 min 0 W/m 31,5 km/h (5 Bft) 95,74 %
18.01.2018 01:48 4,2 C 3,9 C 2,8 C 86 % 0 lf 1004,5 hPa 0,0 l/m 0 min 0 min 0 W/m 22,5 km/h (4 Bft) 97,87 %
18.01.2018 01:50 4,2 C 3,9 C 2,8 C 86 % 0 lf 1004,3 hPa 0,0 l/m 0 min 0 min 0 W/m 31,5 km/h (5 Bft) 97,87 %
18.01.2018 01:52 4,2 C 3,9 C 2,8 C 86 % 0 lf 1004,3 hPa 0,0 l/m 0 min 0 min 0 W/m 29,3 km/h (5 Bft) 97,83 %
18.01.2018 01:54 4,2 C 3,9 C 2,8 C 86 % 0 lf 1004,2 hPa 0,0 l/m 0 min 0 min 0 W/m 18,0 km/h (3 Bft) 100,00 %
18.01.2018 01:56 4,2 C 3,9 C 2,2 C 87 % 0 lf 1004,0 hPa 0,0 l/m 0 min 0 min 0 W/m 15,8 km/h (3 Bft) 100,00 %
18.01.2018 01:58 4,2 C 3,9 C 2,8 C 87 % 0 lf 1003,9 hPa 0,0 l/m 0 min 0 min 0 W/m 27,0 km/h (4 Bft) 100,00 %
18.01.2018 02:00 4,2 C 3,9 C 2,8 C 87 % 0 lf 1003,9 hPa 0,0 l/m 0 min 0 min 0 W/m 27,0 km/h (4 Bft) 95,74 %
18.01.2018 02:02 4,2 C 3,9 C 2,8 C 87 % 0 lf 1003,9 hPa 0,0 l/m 0 min 0 min 0 W/m 29,3 km/h (5 Bft) 100,00 %
18.01.2018 02:04 4,2 C 3,9 C 2,8 C 87 % 0 lf 1003,8 hPa 0,0 l/m 0 min 0 min 0 W/m 20,3 km/h (4 Bft) 100,00 %
18.01.2018 02:06 4,2 C 3,9 C 2,8 C 87 % 0 lf 1003,8 hPa 0,0 l/m 0 min 0 min 0 W/m 29,3 km/h (5 Bft) 97,87 %
18.01.2018 02:08 4,2 C 3,9 C 2,8 C 87 % 0 lf 1003,8 hPa 0,0 l/m 0 min 0 min 0 W/m 27,0 km/h (4 Bft) 100,00 %
18.01.2018 02:10 4,2 C 3,9 C 2,8 C 87 % 0 lf 1003,7 hPa 0,0 l/m 0 min 0 min 0 W/m 20,3 km/h (4 Bft) 100,00 %
18.01.2018 02:12 4,2 C 3,9 C 2,8 C 87 % 0 lf 1003,8 hPa 0,0 l/m 0 min 0 min 0 W/m 22,5 km/h (4 Bft) 100,00 %
18.01.2018 02:14 4,2 C 3,9 C 2,8 C 87 % 0 lf 1003,7 hPa 0,0 l/m 0 min 0 min 0 W/m 18,0 km/h (3 Bft) 100,00 %
18.01.2018 02:16 4,2 C 3,9 C 2,8 C 87 % 0 lf 1003,6 hPa 0,0 l/m 0 min 0 min 0 W/m 24,8 km/h (4 Bft) 100,00 %
18.01.2018 02:18 4,2 C 3,9 C 2,8 C 87 % 0 lf 1003,6 hPa 0,0 l/m 0 min 0 min 0 W/m 29,3 km/h (5 Bft) 100,00 %
18.01.2018 02:20 4,2 C 3,9 C 2,8 C 88 % 0 lf 1003,4 hPa 0,0 l/m 0 min 0 min 0 W/m 27,0 km/h (4 Bft) 100,00 %
18.01.2018 02:22 4,2 C 3,9 C 2,8 C 88 % 0 lf 1003,4 hPa 0,0 l/m 0 min 0 min 0 W/m 20,3 km/h (4 Bft) 97,87 %
18.01.2018 02:24 4,2 C 3,9 C 2,8 C 88 % 0 lf 1003,4 hPa 0,0 l/m 0 min 0 min 0 W/m 24,8 km/h (4 Bft) 97,87 %
18.01.2018 02:26 4,2 C 3,9 C 2,8 C 88 % 0 lf 1003,4 hPa 0,0 l/m 0 min 0 min 0 W/m 24,8 km/h (4 Bft) 97,92 %
18.01.2018 02:28 4,2 C 3,9 C 2,8 C 88 % 0 lf 1003,3 hPa 0,0 l/m 0 min 0 min 0 W/m 24,8 km/h (4 Bft) 93,62 %
18.01.2018 02:30 4,2 C 4,4 C 2,8 C 88 % 0 lf 1003,3 hPa 0,0 l/m 0 min 0 min 0 W/m 27,0 km/h (4 Bft) 97,87 %
18.01.2018 02:32 4,2 C 4,4 C 2,8 C 88 % 0 lf 1003,3 hPa 0,0 l/m 0 min 0 min 0 W/m 31,5 km/h (5 Bft) 91,30 %
18.01.2018 02:34 4,2 C 4,4 C 2,8 C 88 % 0 lf 1003,2 hPa 0,0 l/m 0 min 0 min 0 W/m 38,3 km/h (5 Bft) 95,74 %
18.01.2018 02:36 4,2 C 4,4 C 2,8 C 88 % 0 lf 1003,1 hPa 0,0 l/m 0 min 0 min 0 W/m 27,0 km/h (4 Bft) 93,62 %
18.01.2018 02:38 4,3 C 4,4 C 2,8 C 88 % 0 lf 1002,8 hPa 0,0 l/m 0 min 0 min 0 W/m 18,0 km/h (3 Bft) 95,74 %
18.01.2018 02:40 4,2 C 4,4 C 2,8 C 88 % 0 lf 1002,8 hPa 0,0 l/m 0 min 0 min 0 W/m 18,0 km/h (3 Bft) 95,74 %
18.01.2018 02:42 4,2 C 3,9 C 2,8 C 88 % 0 lf 1002,7 hPa 0,0 l/m 0 min 0 min 0 W/m 22,5 km/h (4 Bft) 95,74 %
18.01.2018 02:44 4,3 C 4,4 C 2,8 C 88 % 0 lf 1002,7 hPa 0,0 l/m 0 min 0 min 0 W/m 31,5 km/h (5 Bft) 95,65 %
18.01.2018 02:46 4,3 C 4,4 C 2,8 C 88 % 0 lf 1002,5 hPa 0,0 l/m 0 min 0 min 0 W/m 29,3 km/h (5 Bft) 93,48 %
18.01.2018 02:48 4,3 C 4,4 C 2,8 C 88 % 0 lf 1002,5 hPa 0,0 l/m 0 min 0 min 0 W/m 22,5 km/h (4 Bft) 93,62 %
18.01.2018 02:50 4,3 C 4,4 C 2,8 C 88 % 0 lf 1002,4 hPa 0,0 l/m 0 min 0 min 0 W/m 20,3 km/h (4 Bft) 95,74 %
18.01.2018 02:52 4,3 C 4,4 C 2,8 C 88 % 0 lf 1002,3 hPa 0,0 l/m 0 min 0 min 0 W/m 20,3 km/h (4 Bft) 91,49 %
18.01.2018 02:54 4,3 C 4,4 C 2,8 C 88 % 0 lf 1002,4 hPa 0,0 l/m 0 min 0 min 0 W/m 24,8 km/h (4 Bft) 95,74 %
18.01.2018 02:56 4,3 C 4,4 C 2,8 C 88 % 0 lf 1002,2 hPa 0,0 l/m 0 min 0 min 0 W/m 27,0 km/h (4 Bft) 95,65 %
18.01.2018 02:58 4,3 C 4,4 C 2,8 C 88 % 0 lf 1002,0 hPa 0,0 l/m 0 min 0 min 0 W/m 20,3 km/h (4 Bft) 93,62 %
18.01.2018 03:00 4,3 C 4,4 C 2,8 C 88 % 0 lf 1002,1 hPa 0,0 l/m 0 min 0 min 0 W/m 33,8 km/h (5 Bft) 95,74 %
18.01.2018 03:02 4,3 C 4,4 C 2,8 C 88 % 0 lf 1002,3 hPa 0,0 l/m 0 min 0 min 0 W/m 33,8 km/h (5 Bft) 91,49 %
18.01.2018 03:04 4,3 C 4,4 C 2,8 C 88 % 0 lf 1002,3 hPa 0,0 l/m 0 min 0 min 0 W/m 27,0 km/h (4 Bft) 93,62 %
18.01.2018 03:06 4,3 C 4,4 C 2,8 C 88 % 0 lf 1002,3 hPa 0,0 l/m 0 min 0 min 0 W/m 18,0 km/h (3 Bft) 97,83 %
18.01.2018 03:08 4,3 C 4,4 C 2,8 C 88 % 0 lf 1002,3 hPa 0,0 l/m 0 min 0 min 0 W/m 31,5 km/h (5 Bft) 95,74 %
18.01.2018 03:10 4,3 C 4,4 C 2,8 C 88 % 0 lf 1002,3 hPa 0,0 l/m 0 min 0 min 0 W/m 33,8 km/h (5 Bft) 97,87 %
18.01.2018 03:12 4,4 C 4,4 C 2,8 C 89 % 0 lf 1002,1 hPa 0,0 l/m 0 min 0 min 0 W/m 24,8 km/h (4 Bft) 95,74 %
18.01.2018 03:14 4,4 C 4,4 C 2,8 C 89 % 0 lf 1002,0 hPa 0,0 l/m 0 min 0 min 0 W/m 22,5 km/h (4 Bft) 97,87 %
18.01.2018 03:16 4,4 C 4,4 C 2,8 C 89 % 1 lf 1002,0 hPa 0,0 l/m 0 min 2 min 0 W/m 27,0 km/h (4 Bft) 97,87 %
18.01.2018 03:18 4,4 C 4,4 C 2,8 C 89 % 1 lf 1001,9 hPa 0,0 l/m 0 min 2 min 0 W/m 36,0 km/h (5 Bft) 100,00 %
18.01.2018 03:20 4,4 C 4,4 C 2,8 C 89 % 1 lf 1001,9 hPa 0,0 l/m 0 min 0 min 0 W/m 31,5 km/h (5 Bft) 97,87 %
18.01.2018 03:22 4,4 C 4,4 C 2,8 C 89 % 1 lf 1001,8 hPa 0,0 l/m 0 min 2 min 0 W/m 24,8 km/h (4 Bft) 97,87 %
18.01.2018 03:24 4,5 C 4,4 C 2,8 C 89 % 1 lf 1001,8 hPa 0,0 l/m 0 min 2 min 0 W/m 31,5 km/h (5 Bft) 100,00 %
18.01.2018 03:26 4,5 C 4,4 C 2,8 C 89 % 1 lf 1001,8 hPa 0,0 l/m 0 min 2 min 0 W/m 31,5 km/h (5 Bft) 93,62 %
18.01.2018 03:28 4,5 C 4,4 C 2,8 C 89 % 3 lf 1001,6 hPa 0,0 l/m 0 min 2 min 0 W/m 38,3 km/h (5 Bft) 95,74 %
18.01.2018 03:30 4,6 C 3,9 C 2,8 C 89 % 3 lf 1001,6 hPa 0,0 l/m 0 min 2 min 0 W/m 42,8 km/h (6 Bft) 93,48 %
18.01.2018 03:32 4,6 C 3,9 C 2,8 C 89 % 4 lf 1001,6 hPa 0,0 l/m 0 min 2 min 0 W/m 36,0 km/h (5 Bft) 97,87 %
18.01.2018 03:34 4,6 C 3,9 C 2,8 C 89 % 12 lf 1001,4 hPa 0,0 l/m 0 min 2 min 0 W/m 31,5 km/h (5 Bft) 97,87 %
18.01.2018 03:36 4,6 C 3,9 C 2,8 C 89 % 13 lf 1001,2 hPa 0,0 l/m 0 min 2 min 0 W/m 18,0 km/h (3 Bft) 97,87 %
18.01.2018 03:38 4,6 C 3,9 C 2,8 C 89 % 13 lf 1001,1 hPa 0,0 l/m 0 min 2 min 0 W/m 15,8 km/h (3 Bft) 95,74 %
18.01.2018 03:40 4,6 C 3,9 C 2,2 C 89 % 14 lf 1001,1 hPa 0,0 l/m 0 min 2 min 0 W/m 42,8 km/h (6 Bft) 97,87 %
18.01.2018 03:42 4,6 C 3,9 C 2,2 C 90 % 14 lf 1001,0 hPa 0,0 l/m 0 min 2 min 0 W/m 42,8 km/h (6 Bft) 97,83 %
18.01.2018 03:44 4,6 C 3,3 C 2,2 C 90 % 15 lf 1001,0 hPa 0,0 l/m 0 min 2 min 0 W/m 29,3 km/h (5 Bft) 95,74 %
18.01.2018 03:46 4,5 C 3,3 C 2,2 C 90 % 15 lf 1000,9 hPa 0,2 l/m 0 min 2 min 0 W/m 24,8 km/h (4 Bft) 95,83 %
18.01.2018 03:48 4,5 C 3,3 C 2,2 C 90 % 15 lf 1000,8 hPa 0,0 l/m 0 min 2 min 0 W/m 24,8 km/h (4 Bft) 95,74 %
18.01.2018 03:50 4,5 C 3,3 C 2,2 C 90 % 15 lf 1000,6 hPa 0,0 l/m 0 min 2 min 0 W/m 31,5 km/h (5 Bft) 97,87 %
18.01.2018 03:52 4,5 C 3,3 C 2,2 C 90 % 15 lf 1000,5 hPa 0,0 l/m 0 min 2 min 0 W/m 22,5 km/h (4 Bft) 97,83 %
18.01.2018 03:54 4,5 C 3,3 C 2,2 C 90 % 15 lf 1000,5 hPa 0,0 l/m 0 min 2 min 0 W/m 29,3 km/h (5 Bft) 97,87 %
18.01.2018 03:56 4,4 C 3,3 C 2,2 C 90 % 15 lf 1000,3 hPa 0,0 l/m 0 min 2 min 0 W/m 22,5 km/h (4 Bft) 97,87 %
18.01.2018 03:58 4,4 C 3,3 C 2,2 C 90 % 15 lf 1000,2 hPa 0,0 l/m 0 min 2 min 0 W/m 31,5 km/h (5 Bft) 97,87 %
18.01.2018 04:00 4,4 C 3,3 C 2,2 C 91 % 15 lf 1000,2 hPa 0,0 l/m 0 min 2 min 0 W/m 31,5 km/h (5 Bft) 95,74 %
18.01.2018 04:02 4,4 C 3,3 C 2,2 C 91 % 15 lf 999,9 hPa 0,0 l/m 0 min 2 min 0 W/m 29,3 km/h (5 Bft) 92,31 %
18.01.2018 04:04 4,4 C 3,3 C 2,2 C 91 % 15 lf 999,9 hPa 0,0 l/m 0 min 2 min 0 W/m 24,8 km/h (4 Bft) 97,83 %
18.01.2018 04:06 4,4 C 3,3 C 2,2 C 91 % 15 lf 999,7 hPa 0,0 l/m 0 min 2 min 0 W/m 22,5 km/h (4 Bft) 100,00 %
18.01.2018 04:08 4,3 C 3,3 C 2,2 C 91 % 15 lf 999,6 hPa 0,0 l/m 0 min 2 min 0 W/m 29,3 km/h (5 Bft) 100,00 %
18.01.2018 04:10 4,3 C 3,3 C 2,2 C 91 % 15 lf 999,6 hPa 0,0 l/m 0 min 2 min 0 W/m 20,3 km/h (4 Bft) 100,00 %
18.01.2018 04:12 4,3 C 3,3 C 2,2 C 91 % 15 lf 999,4 hPa 0,2 l/m 0 min 2 min 0 W/m 31,5 km/h (5 Bft) 97,87 %
18.01.2018 04:14 4,3 C 3,3 C 2,2 C 91 % 15 lf 999,3 hPa 0,0 l/m 0 min 2 min 0 W/m 31,5 km/h (5 Bft) 97,87 %
18.01.2018 04:16 4,3 C 3,3 C 2,2 C 91 % 15 lf 999,3 hPa 0,0 l/m 0 min 2 min 0 W/m 33,8 km/h (5 Bft) 100,00 %
18.01.2018 04:18 4,2 C 3,3 C 2,2 C 91 % 15 lf 999,1 hPa 0,0 l/m 0 min 2 min 0 W/m 22,5 km/h (4 Bft) 97,87 %
18.01.2018 04:20 4,2 C 3,3 C 2,2 C 91 % 15 lf 999,0 hPa 0,0 l/m 0 min 2 min 0 W/m 29,3 km/h (5 Bft) 100,00 %
18.01.2018 04:22 4,2 C 3,3 C 2,2 C 91 % 15 lf 998,9 hPa 0,0 l/m 0 min 2 min 0 W/m 36,0 km/h (5 Bft) 100,00 %
18.01.2018 04:24 4,2 C 3,3 C 2,2 C 91 % 15 lf 998,7 hPa 0,0 l/m 0 min 2 min 0 W/m 31,5 km/h (5 Bft) 97,87 %
18.01.2018 04:26 4,1 C 3,3 C 2,2 C 92 % 15 lf 998,6 hPa 0,2 l/m 0 min 2 min 0 W/m 27,0 km/h (4 Bft) 97,87 %
18.01.2018 04:28 4,1 C 3,3 C 2,2 C 92 % 15 lf 998,6 hPa 0,0 l/m 0 min 2 min 0 W/m 24,8 km/h (4 Bft) 95,74 %
18.01.2018 04:30 4,1 C 2,8 C 2,2 C 92 % 15 lf 998,4 hPa 0,0 l/m 0 min 2 min 0 W/m 40,6 km/h (6 Bft) 95,74 %
18.01.2018 04:32 4,0 C 3,3 C 2,2 C 92 % 15 lf 998,3 hPa 0,2 l/m 0 min 2 min 0 W/m 29,3 km/h (5 Bft) 97,83 %
18.01.2018 04:34 4,0 C 3,3 C 2,2 C 92 % 15 lf 998,2 hPa 0,0 l/m 0 min 2 min 0 W/m 31,5 km/h (5 Bft) 100,00 %
18.01.2018 04:36 4,0 C 3,3 C 2,2 C 92 % 15 lf 998,0 hPa 0,0 l/m 0 min 2 min 0 W/m 27,0 km/h (4 Bft) 97,87 %
18.01.2018 04:38 4,0 C 2,8 C 2,2 C 92 % 15 lf 997,9 hPa 0,0 l/m 0 min 2 min 0 W/m 36,0 km/h (5 Bft) 97,87 %
18.01.2018 04:40 3,9 C 3,3 C 2,2 C 92 % 15 lf 997,8 hPa 0,2 l/m 0 min 2 min 0 W/m 29,3 km/h (5 Bft) 95,74 %
18.01.2018 04:42 3,9 C 3,3 C 2,2 C 92 % 15 lf 997,7 hPa 0,0 l/m 0 min 2 min 0 W/m 42,8 km/h (6 Bft) 97,83 %
18.01.2018 04:44 3,9 C 3,3 C 2,2 C 92 % 15 lf 997,6 hPa 0,0 l/m 0 min 2 min 0 W/m 36,0 km/h (5 Bft) 95,74 %
18.01.2018 04:46 3,9 C 3,3 C 2,2 C 93 % 15 lf 997,4 hPa 0,0 l/m 0 min 2 min 0 W/m 40,6 km/h (6 Bft) 93,62 %
18.01.2018 04:48 3,9 C 2,8 C 2,2 C 93 % 15 lf 997,3 hPa 0,2 l/m 0 min 2 min 0 W/m 29,3 km/h (5 Bft) 93,62 %
18.01.2018 04:50 3,9 C 2,8 C 2,2 C 93 % 15 lf 997,2 hPa 0,0 l/m 0 min 2 min 0 W/m 33,8 km/h (5 Bft) 94,83 %
18.01.2018 04:52 3,9 C 2,8 C 2,2 C 93 % 15 lf 997,1 hPa 0,0 l/m 0 min 2 min 0 W/m 24,8 km/h (4 Bft) 97,22 %
18.01.2018 04:54 3,8 C 2,8 C 2,2 C 93 % 15 lf 997,1 hPa 0,0 l/m 0 min 2 min 0 W/m 24,8 km/h (4 Bft) 95,65 %
18.01.2018 04:56 3,8 C 3,3 C 2,2 C 93 % 15 lf 997,0 hPa 0,2 l/m 0 min 2 min 0 W/m 47,3 km/h (6 Bft) 95,74 %
18.01.2018 04:58 3,8 C 2,8 C 2,2 C 93 % 15 lf 997,0 hPa 0,0 l/m 0 min 2 min 0 W/m 40,6 km/h (6 Bft) 95,74 %
18.01.2018 05:00 3,8 C 2,8 C 2,2 C 93 % 15 lf 996,8 hPa 0,0 l/m 0 min 2 min 0 W/m 27,0 km/h (4 Bft) 93,62 %
18.01.2018 05:02 3,8 C 2,8 C 2,2 C 93 % 15 lf 996,7 hPa 0,2 l/m 0 min 2 min 0 W/m 22,5 km/h (4 Bft) 97,96 %
18.01.2018 05:04 3,8 C 2,8 C 2,2 C 93 % 15 lf 996,4 hPa 0,0 l/m 0 min 2 min 0 W/m 40,6 km/h (6 Bft) 97,87 %
18.01.2018 05:06 3,8 C 2,8 C 2,2 C 94 % 15 lf 996,4 hPa 0,0 l/m 0 min 2 min 0 W/m 27,0 km/h (4 Bft) 97,87 %
18.01.2018 05:08 3,8 C 2,8 C 2,2 C 93 % 15 lf 996,3 hPa 0,2 l/m 0 min 2 min 0 W/m 33,8 km/h (5 Bft) 91,49 %
18.01.2018 05:10 3,8 C 2,8 C 2,2 C 94 % 15 lf 996,1 hPa 0,0 l/m 0 min 2 min 0 W/m 47,3 km/h (6 Bft) 97,87 %
18.01.2018 05:12 3,7 C 2,8 C 2,2 C 94 % 15 lf 996,1 hPa 0,0 l/m 0 min 2 min 0 W/m 51,8 km/h (7 Bft) 97,83 %
18.01.2018 05:14 3,7 C 2,8 C 2,2 C 94 % 15 lf 996,0 hPa 0,2 l/m 0 min 2 min 0 W/m 38,3 km/h (5 Bft) 95,74 %
18.01.2018 05:16 3,7 C 2,8 C 2,2 C 94 % 15 lf 995,7 hPa 0,0 l/m 0 min 2 min 0 W/m 47,3 km/h (6 Bft) 97,87 %
18.01.2018 05:18 3,7 C 2,8 C 2,2 C 94 % 15 lf 995,6 hPa 0,0 l/m 0 min 2 min 0 W/m 29,3 km/h (5 Bft) 95,74 %
18.01.2018 05:20 3,7 C 2,8 C 2,2 C 94 % 15 lf 995,3 hPa 0,0 l/m 0 min 2 min 0 W/m 51,8 km/h (7 Bft) 93,10 %
18.01.2018 05:22 3,7 C 2,8 C 2,2 C 94 % 15 lf 995,3 hPa 0,0 l/m 0 min 2 min 0 W/m 38,3 km/h (5 Bft) 97,22 %
18.01.2018 05:24 3,7 C 2,8 C 2,2 C 94 % 15 lf 995,3 hPa 0,2 l/m 0 min 2 min 0 W/m 31,5 km/h (5 Bft) 93,48 %
18.01.2018 05:26 3,7 C 2,8 C 2,2 C 94 % 15 lf 995,2 hPa 0,0 l/m 0 min 2 min 0 W/m 29,3 km/h (5 Bft) 95,74 %
18.01.2018 05:28 3,7 C 2,8 C 2,2 C 94 % 15 lf 994,8 hPa 0,0 l/m 0 min 2 min 0 W/m 27,0 km/h (4 Bft) 95,74 %
18.01.2018 05:30 3,7 C 2,8 C 2,2 C 94 % 15 lf 994,7 hPa 0,0 l/m 0 min 2 min 0 W/m 33,8 km/h (5 Bft) 93,62 %
18.01.2018 05:32 3,7 C 2,8 C 2,2 C 94 % 15 lf 994,8 hPa 0,0 l/m 0 min 2 min 0 W/m 27,0 km/h (4 Bft) 95,74 %
18.01.2018 05:34 3,7 C 3,3 C 2,2 C 94 % 15 lf 994,8 hPa 0,2 l/m 0 min 2 min 0 W/m 31,5 km/h (5 Bft) 95,74 %
18.01.2018 05:35 3,7 C 3,3 C 2,2 C 94 % 15 lf 994,7 hPa 0,2 l/m 0 min 1 min 0 W/m 31,5 km/h (5 Bft) 98,25 %
18.01.2018 05:42 3,7 C 3,3 C 2,2 C 95 % 15 lf 994,1 hPa 0,0 l/m 0 min 5 min 0 W/m 47,3 km/h (6 Bft) 96,43 %
18.01.2018 05:44 3,7 C 3,3 C 2,2 C 95 % 15 lf 994,0 hPa 0,0 l/m 0 min 2 min 0 W/m 42,8 km/h (6 Bft) 93,62 %
18.01.2018 05:46 3,7 C 3,3 C 2,2 C 95 % 15 lf 994,0 hPa 0,0 l/m 0 min 2 min 0 W/m 38,3 km/h (5 Bft) 95,35 %
18.01.2018 05:48 3,7 C 3,3 C 2,2 C 95 % 15 lf 994,0 hPa 0,0 l/m 0 min 2 min 0 W/m 38,3 km/h (5 Bft) 95,74 %
18.01.2018 05:50 3,7 C 3,3 C 2,2 C 95 % 15 lf 994,0 hPa 0,0 l/m 0 min 2 min 0 W/m 38,3 km/h (5 Bft) 94,92 %
18.01.2018 05:52 3,7 C 3,3 C 2,2 C 95 % 15 lf 993,9 hPa 0,0 l/m 0 min 2 min 0 W/m 42,8 km/h (6 Bft) 93,48 %
18.01.2018 05:54 3,7 C 3,3 C 2,2 C 95 % 15 lf 993,8 hPa 0,0 l/m 0 min 2 min 0 W/m 40,6 km/h (6 Bft) 94,44 %
18.01.2018 05:56 3,7 C 3,3 C 2,2 C 95 % 15 lf 993,6 hPa 0,0 l/m 0 min 2 min 0 W/m 38,3 km/h (5 Bft) 94,64 %
18.01.2018 05:58 3,7 C 3,3 C 2,2 C 95 % 15 lf 993,6 hPa 0,2 l/m 0 min 2 min 0 W/m 47,3 km/h (6 Bft) 100,00 %
18.01.2018 06:00 3,8 C 3,3 C 2,2 C 95 % 15 lf 993,3 hPa 0,0 l/m 0 min 2 min 0 W/m 42,8 km/h (6 Bft) 95,74 %
18.01.2018 06:02 3,8 C 3,3 C 2,2 C 95 % 15 lf 993,2 hPa 0,0 l/m 0 min 2 min 0 W/m 24,8 km/h (4 Bft) 90,00 %
18.01.2018 06:04 3,8 C 3,3 C 2,2 C 95 % 15 lf 993,2 hPa 0,0 l/m 0 min 0 min 0 W/m 33,8 km/h (5 Bft) 95,65 %
18.01.2018 06:08 3,9 C 3,3 C 2,2 C 96 % 15 lf 993,2 hPa 0,0 l/m 0 min 0 min 0 W/m 42,8 km/h (6 Bft) 95,05 %
18.01.2018 06:10 3,9 C 3,3 C 2,8 C 96 % 15 lf 993,0 hPa 0,0 l/m 0 min 2 min 0 W/m 40,6 km/h (6 Bft) 97,37 %
18.01.2018 06:12 3,9 C 3,3 C 2,8 C 96 % 15 lf 992,9 hPa 0,0 l/m 0 min 2 min 0 W/m 47,3 km/h (6 Bft) 93,62 %
18.01.2018 06:14 3,9 C 3,3 C 2,8 C 96 % 15 lf 992,8 hPa 0,0 l/m 0 min 2 min 0 W/m 36,0 km/h (5 Bft) 97,96 %
18.01.2018 06:16 4,0 C 3,9 C 2,8 C 96 % 15 lf 992,8 hPa 0,0 l/m 0 min 2 min 0 W/m 27,0 km/h (4 Bft) 97,83 %
18.01.2018 06:18 4,1 C 3,9 C 2,8 C 96 % 15 lf 992,6 hPa 0,0 l/m 0 min 2 min 0 W/m 27,0 km/h (4 Bft) 95,74 %
18.01.2018 06:20 4,1 C 3,9 C 2,8 C 96 % 15 lf 992,2 hPa 0,0 l/m 0 min 2 min 0 W/m 38,3 km/h (5 Bft) 91,49 %
18.01.2018 06:22 4,1 C 3,9 C 2,8 C 96 % 15 lf 992,3 hPa 0,0 l/m 0 min 2 min 0 W/m 45,1 km/h (6 Bft) 93,62 %
18.01.2018 06:24 4,2 C 3,9 C 2,8 C 96 % 15 lf 992,3 hPa 0,0 l/m 0 min 2 min 0 W/m 60,8 km/h (7 Bft) 95,74 %
18.01.2018 06:26 4,3 C 3,9 C 2,8 C 96 % 15 lf 992,1 hPa 0,0 l/m 0 min 2 min 0 W/m 42,8 km/h (6 Bft) 96,30 %
18.01.2018 06:28 4,3 C 3,9 C 2,8 C 96 % 15 lf 992,1 hPa 0,0 l/m 0 min 2 min 0 W/m 51,8 km/h (7 Bft) 94,74 %
18.01.2018 06:30 4,5 C 4,4 C 3,3 C 96 % 15 lf 991,8 hPa 0,0 l/m 0 min 2 min 0 W/m 45,1 km/h (6 Bft) 95,83 %
18.01.2018 06:32 4,6 C 4,4 C 3,3 C 96 % 15 lf 991,9 hPa 0,0 l/m 0 min 2 min 0 W/m 36,0 km/h (5 Bft) 95,74 %
18.01.2018 06:34 4,6 C 4,4 C 3,3 C 96 % 15 lf 991,9 hPa 0,0 l/m 0 min 2 min 0 W/m 38,3 km/h (5 Bft) 95,74 %
18.01.2018 06:38 4,7 C 4,4 C 3,3 C 96 % 15 lf 991,5 hPa 0,0 l/m 0 min 4 min 0 W/m 42,8 km/h (6 Bft) 93,33 %
18.01.2018 06:40 4,8 C 4,4 C 3,3 C 96 % 15 lf 991,6 hPa 0,0 l/m 0 min 2 min 0 W/m 51,8 km/h (7 Bft) 96,43 %
18.01.2018 06:42 4,9 C 4,4 C 3,3 C 96 % 15 lf 991,6 hPa 0,0 l/m 0 min 2 min 0 W/m 54,1 km/h (7 Bft) 93,62 %
18.01.2018 06:44 5,0 C 4,4 C 3,3 C 96 % 15 lf 991,5 hPa 0,0 l/m 0 min 2 min 0 W/m 58,6 km/h (7 Bft) 93,62 %
18.01.2018 06:46 5,1 C 4,4 C 3,3 C 96 % 15 lf 991,4 hPa 0,0 l/m 0 min 2 min 0 W/m 83,3 km/h (9 Bft) 93,18 %
18.01.2018 06:52 5,3 C 5,0 C 3,9 C 96 % 15 lf 991,2 hPa 0,2 l/m 0 min 5 min 0 W/m 56,3 km/h (7 Bft) 100,00 %
18.01.2018 06:54 5,4 C 5,0 C 3,9 C 96 % 15 lf 991,1 hPa 0,0 l/m 0 min 2 min 0 W/m 76,6 km/h (9 Bft) 97,78 %
18.01.2018 06:56 5,5 C 5,0 C 3,9 C 96 % 15 lf 991,1 hPa 0,0 l/m 0 min 2 min 0 W/m 45,1 km/h (6 Bft) 97,87 %
18.01.2018 06:58 5,6 C 5,0 C 3,9 C 96 % 15 lf 990,8 hPa 0,0 l/m 0 min 2 min 0 W/m 72,1 km/h (8 Bft) 97,83 %
18.01.2018 07:00 5,6 C 5,0 C 3,9 C 96 % 15 lf 990,7 hPa 0,0 l/m 0 min 2 min 0 W/m 47,3 km/h (6 Bft) 100,00 %
18.01.2018 07:02 5,7 C 5,0 C 3,9 C 96 % 15 lf 990,6 hPa 0,0 l/m 0 min 2 min 0 W/m 54,1 km/h (7 Bft) 98,00 %
18.01.2018 07:04 5,7 C 5,0 C 3,9 C 96 % 15 lf 990,7 hPa 0,0 l/m 0 min 2 min 0 W/m 40,6 km/h (6 Bft) 97,87 %
18.01.2018 07:06 5,7 C 5,0 C 3,9 C 95 % 15 lf 990,7 hPa 0,0 l/m 0 min 2 min 0 W/m 69,8 km/h (8 Bft) 95,74 %
18.01.2018 07:08 5,8 C 5,0 C 3,9 C 95 % 15 lf 990,8 hPa 0,0 l/m 0 min 2 min 0 W/m 45,1 km/h (6 Bft) 100,00 %
18.01.2018 07:10 5,9 C 5,0 C 3,9 C 95 % 15 lf 990,6 hPa 0,0 l/m 0 min 2 min 0 W/m 60,8 km/h (7 Bft) 100,00 %
18.01.2018 07:12 5,9 C 5,0 C 3,9 C 95 % 15 lf 990,5 hPa 0,0 l/m 0 min 2 min 0 W/m 56,3 km/h (7 Bft) 100,00 %
18.01.2018 07:14 5,9 C 5,0 C 3,9 C 95 % 15 lf 990,3 hPa 0,0 l/m 0 min 2 min 0 W/m 40,6 km/h (6 Bft) 95,74 %
18.01.2018 07:16 5,9 C 5,0 C 3,9 C 95 % 15 lf 990,6 hPa 0,0 l/m 0 min 2 min 0 W/m 51,8 km/h (7 Bft) 97,87 %
18.01.2018 07:18 5,9 C 5,0 C 3,9 C 95 % 15 lf 990,2 hPa 0,0 l/m 0 min 2 min 0 W/m 60,8 km/h (7 Bft) 100,00 %
18.01.2018 07:20 5,9 C 5,0 C 3,9 C 95 % 15 lf 990,3 hPa 0,2 l/m 0 min 2 min 0 W/m 47,3 km/h (6 Bft) 100,00 %
18.01.2018 07:22 5,9 C 5,0 C 3,9 C 95 % 15 lf 990,2 hPa 0,0 l/m 0 min 2 min 0 W/m 51,8 km/h (7 Bft) 100,00 %
18.01.2018 07:24 6,0 C 5,0 C 3,9 C 95 % 15 lf 990,0 hPa 0,0 l/m 0 min 2 min 0 W/m 65,3 km/h (8 Bft) 100,00 %
18.01.2018 07:26 6,0 C 5,0 C 3,9 C 95 % 15 lf 990,1 hPa 0,0 l/m 0 min 2 min 0 W/m 58,6 km/h (7 Bft) 97,87 %
18.01.2018 07:28 6,0 C 5,6 C 3,9 C 95 % 15 lf 989,9 hPa 0,0 l/m 0 min 2 min 0 W/m 58,6 km/h (7 Bft) 97,87 %
18.01.2018 07:30 6,1 C 5,6 C 4,4 C 95 % 15 lf 989,7 hPa 0,0 l/m 0 min 2 min 0 W/m 58,6 km/h (7 Bft) 91,43 %
18.01.2018 07:32 6,1 C 5,6 C 4,4 C 95 % 15 lf 989,7 hPa 0,0 l/m 0 min 2 min 0 W/m 51,8 km/h (7 Bft) 100,00 %
18.01.2018 07:34 6,1 C 5,6 C 4,4 C 95 % 15 lf 989,5 hPa 0,0 l/m 0 min 2 min 0 W/m 60,8 km/h (7 Bft) 100,00 %
18.01.2018 07:36 6,1 C 5,6 C 4,4 C 95 % 15 lf 989,8 hPa 0,0 l/m 0 min 2 min 0 W/m 47,3 km/h (6 Bft) 100,00 %
18.01.2018 07:38 6,2 C 5,6 C 4,4 C 95 % 15 lf 989,6 hPa 0,0 l/m 0 min 2 min 0 W/m 54,1 km/h (7 Bft) 100,00 %
18.01.2018 07:40 6,2 C 5,6 C 4,4 C 95 % 15 lf 989,7 hPa 0,0 l/m 0 min 2 min 0 W/m 58,6 km/h (7 Bft) 100,00 %
18.01.2018 07:42 6,2 C 5,6 C 4,4 C 95 % 15 lf 989,6 hPa 0,0 l/m 0 min 2 min 0 W/m 42,8 km/h (6 Bft) 100,00 %
18.01.2018 07:44 6,3 C 5,6 C 4,4 C 95 % 15 lf 989,7 hPa 0,0 l/m 0 min 2 min 0 W/m 36,0 km/h (5 Bft) 95,74 %
18.01.2018 07:46 6,3 C 5,6 C 4,4 C 95 % 15 lf 989,6 hPa 0,0 l/m 0 min 2 min 0 W/m 40,6 km/h (6 Bft) 97,83 %
18.01.2018 07:48 6,4 C 5,6 C 4,4 C 95 % 15 lf 989,6 hPa 0,0 l/m 0 min 2 min 0 W/m 54,1 km/h (7 Bft) 100,00 %
18.01.2018 07:50 6,4 C 5,6 C 4,4 C 95 % 15 lf 989,5 hPa 0,2 l/m 0 min 2 min 0 W/m 45,1 km/h (6 Bft) 100,00 %
18.01.2018 07:52 6,4 C 5,6 C 4,4 C 95 % 15 lf 989,5 hPa 0,0 l/m 0 min 2 min 0 W/m 60,8 km/h (7 Bft) 100,00 %
18.01.2018 07:54 6,4 C 5,6 C 4,4 C 95 % 15 lf 989,5 hPa 0,0 l/m 0 min 2 min 0 W/m 49,6 km/h (6 Bft) 100,00 %
18.01.2018 07:56 6,5 C 5,6 C 4,4 C 95 % 15 lf 989,4 hPa 0,0 l/m 0 min 2 min 0 W/m 38,3 km/h (5 Bft) 97,87 %
18.01.2018 07:58 6,5 C 5,6 C 4,4 C 95 % 15 lf 989,6 hPa 0,0 l/m 0 min 2 min 0 W/m 51,8 km/h (7 Bft) 100,00 %
18.01.2018 08:00 6,5 C 6,1 C 4,4 C 95 % 15 lf 989,3 hPa 0,2 l/m 0 min 2 min 0 W/m 31,5 km/h (5 Bft) 100,00 %
18.01.2018 08:02 6,6 C 6,1 C 5,0 C 95 % 15 lf 989,2 hPa 0,0 l/m 0 min 2 min 0 W/m 49,6 km/h (6 Bft) 100,00 %
18.01.2018 08:04 6,6 C 6,1 C 5,0 C 95 % 15 lf 989,2 hPa 0,0 l/m 0 min 2 min 0 W/m 40,6 km/h (6 Bft) 95,74 %
18.01.2018 08:06 6,6 C 6,1 C 5,0 C 95 % 15 lf 989,2 hPa 0,0 l/m 0 min 2 min 0 W/m 47,3 km/h (6 Bft) 95,74 %
18.01.2018 08:08 6,7 C 6,1 C 5,0 C 95 % 15 lf 989,3 hPa 0,0 l/m 0 min 2 min 0 W/m 40,6 km/h (6 Bft) 93,62 %
18.01.2018 08:10 6,7 C 6,1 C 5,0 C 95 % 15 lf 989,2 hPa 0,0 l/m 0 min 2 min 0 W/m 60,8 km/h (7 Bft) 97,87 %
18.01.2018 08:12 6,8 C 6,1 C 5,0 C 95 % 15 lf 989,1 hPa 0,0 l/m 0 min 2 min 0 W/m 42,8 km/h (6 Bft) 93,62 %
18.01.2018 08:14 6,8 C 6,1 C 5,0 C 95 % 15 lf 989,1 hPa 0,0 l/m 0 min 2 min 0 W/m 49,6 km/h (6 Bft) 95,74 %
18.01.2018 08:16 6,9 C 6,1 C 5,0 C 95 % 15 lf 989,1 hPa 0,0 l/m 0 min 2 min 0 W/m 40,6 km/h (6 Bft) 93,62 %
18.01.2018 08:18 6,9 C 6,1 C 5,0 C 96 % 15 lf 989,0 hPa 0,2 l/m 0 min 2 min 0 W/m 51,8 km/h (7 Bft) 93,48 %
18.01.2018 08:20 7,0 C 6,7 C 5,0 C 96 % 15 lf 989,0 hPa 0,0 l/m 0 min 2 min 0 W/m 63,1 km/h (8 Bft) 93,22 %
18.01.2018 08:22 7,1 C 6,7 C 5,0 C 96 % 15 lf 988,9 hPa 0,0 l/m 0 min 2 min 0 W/m 40,6 km/h (6 Bft) 94,29 %
18.01.2018 08:24 7,1 C 6,7 C 5,6 C 96 % 15 lf 988,9 hPa 0,0 l/m 0 min 2 min 0 W/m 38,3 km/h (5 Bft) 93,62 %
18.01.2018 08:26 7,2 C 6,7 C 5,6 C 96 % 15 lf 988,8 hPa 0,0 l/m 0 min 2 min 0 W/m 47,3 km/h (6 Bft) 95,74 %
18.01.2018 08:28 7,2 C 6,7 C 5,6 C 95 % 15 lf 988,8 hPa 0,0 l/m 0 min 2 min 0 W/m 49,6 km/h (6 Bft) 91,49 %
18.01.2018 08:30 7,3 C 6,7 C 5,6 C 96 % 15 lf 988,6 hPa 0,0 l/m 0 min 2 min 0 W/m 54,1 km/h (7 Bft) 93,48 %
18.01.2018 08:32 7,4 C 6,7 C 5,6 C 96 % 15 lf 988,7 hPa 0,0 l/m 0 min 2 min 0 W/m 58,6 km/h (7 Bft) 93,62 %
18.01.2018 08:34 7,5 C 6,7 C 5,6 C 95 % 15 lf 988,5 hPa 0,0 l/m 0 min 2 min 0 W/m 36,0 km/h (5 Bft) 95,74 %
18.01.2018 08:36 7,6 C 7,2 C 5,6 C 96 % 15 lf 988,6 hPa 0,0 l/m 0 min 2 min 0 W/m 58,6 km/h (7 Bft) 89,36 %
18.01.2018 08:38 7,7 C 7,2 C 5,6 C 95 % 15 lf 988,4 hPa 0,0 l/m 0 min 2 min 0 W/m 42,8 km/h (6 Bft) 91,49 %
18.01.2018 08:40 7,7 C 7,2 C 6,1 C 95 % 15 lf 988,5 hPa 0,0 l/m 0 min 2 min 0 W/m 51,8 km/h (7 Bft) 91,49 %
18.01.2018 08:42 7,8 C 7,2 C 6,1 C 95 % 15 lf 988,5 hPa 0,0 l/m 0 min 2 min 0 W/m 58,6 km/h (7 Bft) 93,48 %
18.01.2018 08:44 7,9 C 7,2 C 6,1 C 95 % 15 lf 988,5 hPa 0,0 l/m 0 min 2 min 5 W/m 54,1 km/h (7 Bft) 89,36 %
18.01.2018 08:46 8,1 C 7,2 C 6,1 C 95 % 15 lf 988,5 hPa 0,0 l/m 0 min 2 min 6 W/m 47,3 km/h (6 Bft) 93,62 %
18.01.2018 08:48 8,1 C 7,2 C 6,1 C 95 % 15 lf 988,5 hPa 0,0 l/m 0 min 2 min 7 W/m 56,3 km/h (7 Bft) 93,62 %
18.01.2018 08:50 8,2 C 7,2 C 6,1 C 94 % 15 lf 988,4 hPa 0,0 l/m 0 min 2 min 5 W/m 51,8 km/h (7 Bft) 93,62 %
18.01.2018 08:52 8,3 C 7,8 C 6,1 C 94 % 15 lf 988,1 hPa 0,0 l/m 0 min 2 min 3 W/m 45,1 km/h (6 Bft) 93,62 %
18.01.2018 08:54 8,4 C 7,8 C 6,1 C 94 % 15 lf 988,1 hPa 0,0 l/m 0 min 2 min 9 W/m 67,6 km/h (8 Bft) 95,74 %
18.01.2018 08:56 8,4 C 7,8 C 6,7 C 94 % 15 lf 988,2 hPa 0,0 l/m 0 min 2 min 11 W/m 51,8 km/h (7 Bft) 95,83 %
18.01.2018 08:58 8,5 C 7,8 C 6,1 C 93 % 15 lf 988,2 hPa 0,0 l/m 0 min 2 min 17 W/m 40,6 km/h (6 Bft) 96,30 %
18.01.2018 09:00 8,6 C 7,8 C 6,1 C 93 % 15 lf 988,1 hPa 0,0 l/m 0 min 0 min 17 W/m 38,3 km/h (5 Bft) 94,74 %
18.01.2018 09:02 8,6 C 7,8 C 6,7 C 93 % 15 lf 988,2 hPa 0,0 l/m 0 min 2 min 13 W/m 56,3 km/h (7 Bft) 96,00 %
18.01.2018 09:04 8,7 C 7,8 C 6,7 C 93 % 15 lf 988,2 hPa 0,0 l/m 0 min 2 min 10 W/m 45,1 km/h (6 Bft) 94,00 %
18.01.2018 09:06 8,7 C 7,8 C 6,7 C 93 % 15 lf 988,3 hPa 0,0 l/m 0 min 2 min 12 W/m 47,3 km/h (6 Bft) 95,83 %
18.01.2018 09:08 8,7 C 7,8 C 6,7 C 92 % 15 lf 988,2 hPa 0,0 l/m 0 min 2 min 13 W/m 67,6 km/h (8 Bft) 97,14 %
18.01.2018 09:10 8,7 C 7,8 C 6,7 C 92 % 15 lf 988,2 hPa 0,0 l/m 0 min 2 min 8 W/m 58,6 km/h (7 Bft) 94,44 %
18.01.2018 09:12 8,8 C 7,8 C 6,7 C 92 % 14 lf 988,2 hPa 0,0 l/m 0 min 0 min 11 W/m 56,3 km/h (7 Bft) 92,00 %
18.01.2018 09:14 8,8 C 7,8 C 6,7 C 92 % 12 lf 988,3 hPa 0,0 l/m 0 min 0 min 14 W/m 58,6 km/h (7 Bft) 96,00 %
18.01.2018 09:16 8,9 C 8,3 C 6,7 C 92 % 6 lf 988,2 hPa 0,0 l/m 0 min 0 min 18 W/m 45,1 km/h (6 Bft) 94,44 %
18.01.2018 09:18 8,9 C 8,3 C 6,7 C 92 % 2 lf 988,1 hPa 0,0 l/m 0 min 2 min 12 W/m 51,8 km/h (7 Bft) 95,65 %
18.01.2018 09:20 9,0 C 8,3 C 6,7 C 91 % 1 lf 988,2 hPa 0,0 l/m 0 min 0 min 17 W/m 51,8 km/h (7 Bft) 96,36 %
18.01.2018 09:22 9,1 C 8,3 C 6,7 C 91 % 0 lf 988,2 hPa 0,0 l/m 0 min 0 min 16 W/m 45,1 km/h (6 Bft) 95,74 %
18.01.2018 09:24 9,1 C 8,3 C 6,7 C 91 % 0 lf 988,1 hPa 0,0 l/m 0 min 2 min 21 W/m 63,1 km/h (8 Bft) 95,74 %
18.01.2018 09:26 9,2 C 8,3 C 6,7 C 91 % 1 lf 988,1 hPa 0,0 l/m 0 min 2 min 18 W/m 58,6 km/h (7 Bft) 94,00 %
18.01.2018 09:28 9,2 C 8,3 C 7,2 C 91 % 0 lf 988,1 hPa 0,0 l/m 0 min 2 min 27 W/m 65,3 km/h (8 Bft) 100,00 %
18.01.2018 09:30 9,3 C 8,3 C 6,7 C 90 % 0 lf 988,1 hPa 0,0 l/m 0 min 2 min 46 W/m 49,6 km/h (6 Bft) 95,74 %
18.01.2018 09:32 9,3 C 8,3 C 7,2 C 90 % 0 lf 988,1 hPa 0,0 l/m 0 min 2 min 28 W/m 60,8 km/h (7 Bft) 96,23 %
18.01.2018 09:34 9,3 C 8,3 C 6,7 C 90 % 0 lf 988,1 hPa 0,0 l/m 0 min 0 min 24 W/m 67,6 km/h (8 Bft) 98,00 %
18.01.2018 09:36 9,4 C 8,3 C 7,2 C 89 % 0 lf 987,9 hPa 0,0 l/m 0 min 2 min 35 W/m 69,8 km/h (8 Bft) 97,37 %
18.01.2018 09:38 9,5 C 8,3 C 7,2 C 88 % 0 lf 988,0 hPa 0,0 l/m 0 min 2 min 25 W/m 65,3 km/h (8 Bft) 97,92 %
18.01.2018 09:40 9,6 C 8,3 C 7,2 C 88 % 0 lf 988,0 hPa 0,0 l/m 0 min 2 min 36 W/m 58,6 km/h (7 Bft) 100,00 %
18.01.2018 09:42 9,6 C 8,3 C 7,2 C 88 % 0 lf 988,0 hPa 0,0 l/m 0 min 2 min 46 W/m 63,1 km/h (8 Bft) 98,18 %
18.01.2018 09:44 9,6 C 8,3 C 7,2 C 87 % 0 lf 988,0 hPa 0,0 l/m 0 min 2 min 50 W/m 49,6 km/h (6 Bft) 100,00 %
18.01.2018 09:46 9,7 C 8,3 C 7,2 C 87 % 0 lf 987,7 hPa 0,0 l/m 0 min 0 min 44 W/m 69,8 km/h (8 Bft) 94,00 %
18.01.2018 09:48 9,7 C 8,3 C 7,2 C 86 % 0 lf 987,9 hPa 0,0 l/m 0 min 2 min 67 W/m 87,9 km/h (9 Bft) 97,92 %
18.01.2018 09:50 9,8 C 8,3 C 7,2 C 84 % 0 lf 987,9 hPa 0,0 l/m 0 min 2 min 73 W/m 87,9 km/h (9 Bft) 95,74 %
18.01.2018 09:52 9,9 C 8,3 C 7,2 C 82 % 0 lf 988,0 hPa 0,0 l/m 0 min 2 min 61 W/m 76,6 km/h (9 Bft) 97,83 %
18.01.2018 09:54 10,0 C 8,9 C 7,2 C 81 % 0 lf 988,1 hPa 0,0 l/m 0 min 2 min 71 W/m 67,6 km/h (8 Bft) 97,92 %
18.01.2018 09:56 10,0 C 9,4 C 7,2 C 80 % 0 lf 988,1 hPa 0,0 l/m 0 min 0 min 54 W/m 67,6 km/h (8 Bft) 97,62 %
18.01.2018 09:58 10,1 C 10,0 C 7,2 C 80 % 0 lf 988,2 hPa 0,0 l/m 0 min 2 min 73 W/m 74,3 km/h (8 Bft) 98,00 %
18.01.2018 10:00 10,1 C 10,6 C 7,2 C 79 % 0 lf 988,2 hPa 0,0 l/m 0 min 0 min 86 W/m 78,9 km/h (9 Bft) 100,00 %
18.01.2018 10:02 10,2 C 10,6 C 7,2 C 77 % 0 lf 988,1 hPa 0,0 l/m 0 min 2 min 51 W/m 78,9 km/h (9 Bft) 95,92 %
18.01.2018 10:04 10,2 C 10,6 C 7,2 C 76 % 0 lf 988,4 hPa 0,0 l/m 0 min 0 min 48 W/m 56,3 km/h (7 Bft) 100,00 %
18.01.2018 10:06 10,2 C 10,6 C 6,7 C 76 % 0 lf 988,2 hPa 0,0 l/m 0 min 0 min 46 W/m 58,6 km/h (7 Bft) 97,87 %
18.01.2018 10:08 10,2 C 10,6 C 6,7 C 76 % 0 lf 988,4 hPa 0,0 l/m 0 min 0 min 45 W/m 49,6 km/h (6 Bft) 95,74 %
18.01.2018 10:10 10,2 C 10,0 C 7,2 C 76 % 0 lf 988,6 hPa 0,0 l/m 0 min 0 min 46 W/m 54,1 km/h (7 Bft) 97,87 %
18.01.2018 10:12 10,2 C 10,6 C 7,2 C 75 % 0 lf 988,3 hPa 0,0 l/m 0 min 2 min 73 W/m 67,6 km/h (8 Bft) 97,87 %
18.01.2018 10:14 10,2 C 10,6 C 8,3 C 73 % 0 lf 988,6 hPa 0,0 l/m 0 min 0 min 56 W/m 76,6 km/h (9 Bft) 97,83 %
18.01.2018 10:16 10,3 C 10,6 C 8,3 C 72 % 0 lf 988,3 hPa 0,0 l/m 0 min 0 min 36 W/m 83,4 km/h (9 Bft) 97,87 %
18.01.2018 10:18 10,3 C 10,6 C 8,3 C 72 % 0 lf 988,3 hPa 0,0 l/m 0 min 0 min 62 W/m 72,1 km/h (8 Bft) 91,43 %
18.01.2018 10:20 10,3 C 10,6 C 8,3 C 72 % 0 lf 988,6 hPa 0,0 l/m 0 min 0 min 94 W/m 58,6 km/h (7 Bft) 98,15 %
18.01.2018 10:22 10,3 C 10,6 C 8,3 C 73 % 0 lf 988,6 hPa 0,0 l/m 0 min 0 min 59 W/m 51,8 km/h (7 Bft) 97,87 %
18.01.2018 10:24 10,3 C 10,6 C 8,9 C 73 % 0 lf 988,1 hPa 0,0 l/m 0 min 0 min 73 W/m 101,4 km/h (10 Bft) 97,87 %
18.01.2018 10:26 10,3 C 10,6 C 8,9 C 72 % 0 lf 988,2 hPa 0,0 l/m 0 min 0 min 83 W/m 87,9 km/h (9 Bft) 98,00 %
18.01.2018 10:28 10,3 C 10,6 C 8,9 C 72 % 0 lf 988,6 hPa 0,0 l/m 0 min 0 min 91 W/m 90,1 km/h (10 Bft) 97,92 %
18.01.2018 10:30 10,3 C 10,6 C 8,9 C 72 % 0 lf 988,7 hPa 0,0 l/m 0 min 0 min 96 W/m 83,4 km/h (9 Bft) 97,87 %
18.01.2018 10:32 10,3 C 10,6 C 8,9 C 72 % 0 lf 988,8 hPa 0,0 l/m 0 min 0 min 91 W/m 74,3 km/h (8 Bft) 97,14 %
18.01.2018 10:34 10,3 C 10,6 C 8,9 C 70 % 0 lf 989,0 hPa 0,0 l/m 0 min 0 min 66 W/m 92,4 km/h (10 Bft) 98,15 %
18.01.2018 10:36 10,3 C 10,0 C 8,3 C 69 % 0 lf 988,8 hPa 0,0 l/m 0 min 0 min 66 W/m 87,9 km/h (9 Bft) 92,00 %
18.01.2018 10:38 10,2 C 10,0 C 8,3 C 67 % 0 lf 988,9 hPa 0,0 l/m 0 min 0 min 52 W/m 92,4 km/h (10 Bft) 100,00 %
18.01.2018 10:40 10,1 C 10,0 C 7,8 C 67 % 0 lf 989,4 hPa 0,0 l/m 0 min 0 min 42 W/m 72,1 km/h (8 Bft) 100,00 %
18.01.2018 10:42 10,0 C 9,4 C 7,8 C 67 % 0 lf 989,6 hPa 0,0 l/m 0 min 0 min 52 W/m 60,8 km/h (7 Bft) 100,00 %
18.01.2018 10:44 9,8 C 9,4 C 7,8 C 67 % 0 lf 989,7 hPa 0,0 l/m 0 min 0 min 62 W/m 76,6 km/h (9 Bft) 100,00 %
18.01.2018 10:46 9,7 C 9,4 C 7,8 C 66 % 0 lf 990,2 hPa 0,0 l/m 0 min 0 min 69 W/m 108,1 km/h (11 Bft) 97,96 %
18.01.2018 10:48 9,5 C 9,4 C 7,2 C 66 % 0 lf 990,0 hPa 0,0 l/m 0 min 0 min 70 W/m 76,6 km/h (9 Bft) 100,00 %
18.01.2018 10:50 9,3 C 9,4 C 7,8 C 66 % 0 lf 990,2 hPa 0,0 l/m 0 min 0 min 97 W/m 103,6 km/h (11 Bft) 98,15 %
18.01.2018 10:52 9,2 C 9,4 C 7,2 C 67 % 0 lf 990,1 hPa 0,0 l/m 0 min 0 min 97 W/m 94,6 km/h (10 Bft) 91,30 %
18.01.2018 10:54 9,1 C 9,4 C 7,2 C 67 % 0 lf 990,8 hPa 0,0 l/m 0 min 0 min 122 W/m 94,6 km/h (10 Bft) 93,62 %
18.01.2018 10:56 9,0 C 9,4 C 7,8 C 66 % 0 lf 990,5 hPa 0,0 l/m 2 min 0 min 144 W/m 108,1 km/h (11 Bft) 98,00 %
18.01.2018 10:58 8,9 C 9,4 C 7,8 C 67 % 0 lf 990,5 hPa 0,0 l/m 0 min 0 min 110 W/m 76,6 km/h (9 Bft) 97,96 %
18.01.2018 11:00 8,9 C 8,9 C 7,8 C 67 % 0 lf 990,6 hPa 0,0 l/m 0 min 0 min 96 W/m 87,9 km/h (9 Bft) 97,14 %
18.01.2018 11:02 8,9 C 8,9 C 7,2 C 67 % 0 lf 990,5 hPa 0,0 l/m 0 min 0 min 98 W/m 92,4 km/h (10 Bft) 96,30 %
18.01.2018 11:04 8,8 C 8,9 C 7,2 C 67 % 0 lf 990,6 hPa 0,0 l/m 0 min 0 min 102 W/m 110,4 km/h (11 Bft) 95,92 %
18.01.2018 11:06 8,7 C 9,4 C 7,2 C 68 % 0 lf 991,0 hPa 0,0 l/m 0 min 0 min 124 W/m 78,9 km/h (9 Bft) 94,59 %
18.01.2018 11:08 8,7 C 9,4 C 7,2 C 69 % 0 lf 990,8 hPa 0,0 l/m 0 min 0 min 127 W/m 65,3 km/h (8 Bft) 96,61 %
18.01.2018 11:10 8,6 C 8,9 C 7,2 C 68 % 0 lf 990,9 hPa 0,0 l/m 0 min 0 min 92 W/m 81,1 km/h (9 Bft) 94,29 %
18.01.2018 11:12 8,6 C 8,9 C 7,2 C 69 % 0 lf 991,2 hPa 0,0 l/m 0 min 0 min 90 W/m 78,9 km/h (9 Bft) 94,34 %
18.01.2018 11:14 8,5 C 8,9 C 7,2 C 69 % 0 lf 991,3 hPa 0,0 l/m 0 min 0 min 117 W/m 94,6 km/h (10 Bft) 98,00 %
18.01.2018 11:16 8,4 C 8,9 C 7,2 C 70 % 0 lf 991,3 hPa 0,0 l/m 0 min 0 min 113 W/m 85,6 km/h (9 Bft) 95,92 %
18.01.2018 11:18 8,4 C 8,3 C 7,2 C 70 % 0 lf 991,5 hPa 0,0 l/m 0 min 0 min 105 W/m 83,4 km/h (9 Bft) 97,14 %
18.01.2018 11:20 8,4 C 8,3 C 7,2 C 71 % 0 lf 991,5 hPa 0,0 l/m 0 min 0 min 103 W/m 76,6 km/h (9 Bft) 98,11 %
18.01.2018 11:22 8,3 C 8,3 C 7,2 C 71 % 0 lf 991,8 hPa 0,0 l/m 0 min 0 min 113 W/m 67,6 km/h (8 Bft) 95,74 %
18.01.2018 11:24 8,2 C 8,9 C 7,2 C 70 % 0 lf 992,2 hPa 0,0 l/m 0 min 0 min 109 W/m 87,9 km/h (9 Bft) 93,62 %
18.01.2018 11:26 8,2 C 8,9 C 7,2 C 71 % 0 lf 991,8 hPa 0,0 l/m 0 min 0 min 108 W/m 63,1 km/h (8 Bft) 93,88 %
18.01.2018 11:28 8,1 C 8,9 C 7,2 C 71 % 0 lf 991,8 hPa 0,0 l/m 0 min 0 min 114 W/m 54,1 km/h (7 Bft) 94,00 %
18.01.2018 11:30 8,1 C 8,3 C 6,7 C 71 % 0 lf 992,1 hPa 0,0 l/m 0 min 0 min 125 W/m 63,1 km/h (8 Bft) 94,29 %
18.01.2018 11:32 7,9 C 8,3 C 6,7 C 70 % 0 lf 992,0 hPa 0,0 l/m 0 min 0 min 129 W/m 69,8 km/h (8 Bft) 95,83 %
18.01.2018 11:34 7,8 C 8,3 C 6,7 C 70 % 0 lf 992,3 hPa 0,0 l/m 0 min 0 min 134 W/m 74,3 km/h (8 Bft) 96,36 %
18.01.2018 11:36 7,7 C 8,9 C 6,7 C 70 % 0 lf 992,5 hPa 0,0 l/m 2 min 0 min 202 W/m 83,4 km/h (9 Bft) 98,00 %
18.01.2018 11:38 7,7 C 8,3 C 6,7 C 71 % 0 lf 992,4 hPa 0,0 l/m 0 min 0 min 152 W/m 99,1 km/h (10 Bft) 91,43 %
18.01.2018 11:40 7,6 C 8,3 C 6,7 C 70 % 0 lf 992,5 hPa 0,0 l/m 0 min 0 min 154 W/m 76,6 km/h (9 Bft) 97,87 %
18.01.2018 11:42 7,5 C 8,3 C 6,7 C 71 % 0 lf 992,5 hPa 0,0 l/m 0 min 0 min 154 W/m 74,3 km/h (8 Bft) 96,36 %
18.01.2018 11:44 7,5 C 8,3 C 6,7 C 72 % 0 lf 992,8 hPa 0,0 l/m 2 min 0 min 165 W/m 63,1 km/h (8 Bft) 94,00 %
18.01.2018 11:46 7,4 C 7,8 C 6,7 C 72 % 0 lf 993,0 hPa 0,0 l/m 0 min 0 min 149 W/m 92,4 km/h (10 Bft) 97,30 %
18.01.2018 11:48 7,4 C 7,8 C 6,7 C 72 % 0 lf 993,2 hPa 0,0 l/m 0 min 0 min 129 W/m 81,1 km/h (9 Bft) 97,87 %
18.01.2018 11:50 7,3 C 7,8 C 6,1 C 72 % 0 lf 993,3 hPa 0,0 l/m 0 min 0 min 109 W/m 74,3 km/h (8 Bft) 92,45 %
18.01.2018 11:52 7,2 C 7,2 C 6,1 C 72 % 0 lf 993,2 hPa 0,0 l/m 0 min 0 min 96 W/m 67,6 km/h (8 Bft) 93,62 %
18.01.2018 11:54 7,2 C 7,2 C 6,1 C 72 % 0 lf 993,5 hPa 0,0 l/m 0 min 0 min 87 W/m 76,6 km/h (9 Bft) 97,87 %
18.01.2018 11:56 7,2 C 7,2 C 6,1 C 73 % 0 lf 993,5 hPa 0,0 l/m 0 min 0 min 73 W/m 74,3 km/h (8 Bft) 98,00 %
18.01.2018 11:58 7,1 C 7,2 C 6,1 C 73 % 0 lf 994,1 hPa 0,0 l/m 0 min 0 min 75 W/m 67,6 km/h (8 Bft) 97,37 %
18.01.2018 12:00 7,1 C 7,2 C 5,6 C 73 % 2 lf 994,1 hPa 0,0 l/m 0 min 0 min 76 W/m 72,1 km/h (8 Bft) 97,83 %
18.01.2018 12:02 7,0 C 7,2 C 5,6 C 74 % 0 lf 994,2 hPa 0,0 l/m 0 min 0 min 85 W/m 58,6 km/h (7 Bft) 93,88 %
18.01.2018 12:04 6,9 C 7,2 C 5,6 C 75 % 0 lf 994,2 hPa 0,0 l/m 0 min 0 min 102 W/m 76,6 km/h (9 Bft) 96,30 %
18.01.2018 12:06 6,9 C 7,2 C 6,1 C 75 % 0 lf 994,2 hPa 0,0 l/m 0 min 0 min 122 W/m 45,1 km/h (6 Bft) 97,44 %
18.01.2018 12:08 6,8 C 7,2 C 6,1 C 75 % 0 lf 994,3 hPa 0,0 l/m 0 min 0 min 100 W/m 58,6 km/h (7 Bft) 93,75 %
18.01.2018 12:10 6,8 C 7,2 C 6,1 C 76 % 2 lf 994,3 hPa 0,0 l/m 0 min 0 min 91 W/m 69,8 km/h (8 Bft) 95,74 %
18.01.2018 12:12 6,8 C 7,2 C 5,6 C 76 % 0 lf 994,6 hPa 0,0 l/m 0 min 0 min 108 W/m 56,3 km/h (7 Bft) 92,73 %
18.01.2018 12:14 6,7 C 7,2 C 5,6 C 77 % 2 lf 994,7 hPa 0,0 l/m 0 min 0 min 100 W/m 58,6 km/h (7 Bft) 100,00 %
18.01.2018 12:16 6,6 C 6,7 C 5,6 C 77 % 3 lf 994,6 hPa 0,0 l/m 0 min 2 min 112 W/m 78,9 km/h (9 Bft) 97,92 %
18.01.2018 12:18 6,6 C 7,2 C 5,6 C 78 % 4 lf 994,8 hPa 0,0 l/m 0 min 0 min 155 W/m 63,1 km/h (8 Bft) 97,87 %
18.01.2018 12:20 6,5 C 7,2 C 5,6 C 79 % 3 lf 994,7 hPa 0,0 l/m 0 min 0 min 159 W/m 63,1 km/h (8 Bft) 98,18 %
18.01.2018 12:22 6,5 C 7,2 C 5,6 C 79 % 3 lf 995,0 hPa 0,0 l/m 0 min 2 min 116 W/m 65,3 km/h (8 Bft) 95,74 %
18.01.2018 12:24 6,4 C 7,2 C 5,6 C 78 % 0 lf 995,0 hPa 0,0 l/m 0 min 0 min 137 W/m 60,8 km/h (7 Bft) 95,74 %
18.01.2018 12:26 6,4 C 7,2 C 5,6 C 79 % 13 lf 994,9 hPa 0,0 l/m 0 min 2 min 117 W/m 54,1 km/h (7 Bft) 89,19 %
18.01.2018 12:28 6,4 C 7,2 C 5,6 C 79 % 9 lf 995,0 hPa 0,0 l/m 0 min 0 min 168 W/m 87,9 km/h (9 Bft) 95,83 %
18.01.2018 12:30 6,4 C 6,7 C 5,6 C 79 % 3 lf 995,1 hPa 0,0 l/m 2 min 0 min 220 W/m 67,6 km/h (8 Bft) 95,74 %
18.01.2018 12:32 6,4 C 6,7 C 5,6 C 79 % 15 lf 995,2 hPa 0,0 l/m 0 min 2 min 124 W/m 51,8 km/h (7 Bft) 96,36 %
18.01.2018 12:34 6,3 C 7,2 C 5,6 C 80 % 10 lf 995,3 hPa 0,0 l/m 2 min 0 min 181 W/m 60,8 km/h (7 Bft) 94,74 %
18.01.2018 12:38 6,3 C 6,7 C 5,6 C 80 % 2 lf 995,3 hPa 0,0 l/m 0 min 0 min 135 W/m 69,8 km/h (8 Bft) 97,80 %
18.01.2018 12:40 6,3 C 7,2 C 5,0 C 80 % 15 lf 995,5 hPa 0,0 l/m 0 min 2 min 150 W/m 60,8 km/h (7 Bft) 96,49 %
18.01.2018 12:42 6,3 C 8,3 C 5,0 C 81 % 9 lf 995,4 hPa 0,0 l/m 2 min 0 min 226 W/m 65,3 km/h (8 Bft) 97,37 %
18.01.2018 12:44 6,3 C 7,2 C 5,0 C 81 % 0 lf 995,6 hPa 0,0 l/m 0 min 0 min 150 W/m 60,8 km/h (7 Bft) 96,00 %
18.01.2018 12:46 6,3 C 7,8 C 5,0 C 81 % 4 lf 995,7 hPa 0,0 l/m 0 min 2 min 140 W/m 54,1 km/h (7 Bft) 95,65 %
18.01.2018 12:48 6,3 C 7,8 C 5,0 C 81 % 2 lf 995,6 hPa 0,0 l/m 0 min 2 min 153 W/m 56,3 km/h (7 Bft) 98,11 %
18.01.2018 12:50 6,3 C 7,2 C 5,0 C 81 % 8 lf 995,8 hPa 0,0 l/m 0 min 0 min 118 W/m 54,1 km/h (7 Bft) 96,00 %
18.01.2018 12:52 6,3 C 7,2 C 5,6 C 81 % 4 lf 995,9 hPa 0,0 l/m 0 min 2 min 114 W/m 58,6 km/h (7 Bft) 97,14 %
18.01.2018 12:54 6,3 C 6,7 C 5,6 C 81 % 3 lf 996,2 hPa 0,0 l/m 0 min 2 min 109 W/m 49,6 km/h (6 Bft) 95,74 %
18.01.2018 12:56 6,2 C 6,7 C 5,0 C 81 % 1 lf 996,1 hPa 0,0 l/m 0 min 0 min 96 W/m 56,3 km/h (7 Bft) 96,00 %
18.01.2018 12:58 6,2 C 6,7 C 5,6 C 82 % 0 lf 996,1 hPa 0,0 l/m 0 min 0 min 170 W/m 58,6 km/h (7 Bft) 97,83 %
18.01.2018 13:00 6,2 C 7,2 C 5,6 C 82 % 0 lf 996,3 hPa 0,0 l/m 0 min 0 min 169 W/m 67,6 km/h (8 Bft) 95,74 %
18.01.2018 13:02 6,2 C 6,7 C 5,6 C 81 % 0 lf 996,4 hPa 0,0 l/m 0 min 0 min 85 W/m 54,1 km/h (7 Bft) 95,74 %
18.01.2018 13:04 6,2 C 6,7 C 5,6 C 81 % 0 lf 996,4 hPa 0,0 l/m 0 min 0 min 108 W/m 60,8 km/h (7 Bft) 98,11 %
18.01.2018 13:06 6,2 C 6,7 C 5,6 C 81 % 1 lf 996,4 hPa 0,0 l/m 0 min 0 min 120 W/m 56,3 km/h (7 Bft) 97,87 %
18.01.2018 13:08 6,2 C 6,7 C 5,6 C 81 % 0 lf 996,5 hPa 0,0 l/m 0 min 0 min 100 W/m 69,8 km/h (8 Bft) 95,74 %
18.01.2018 13:10 6,2 C 6,1 C 5,0 C 82 % 15 lf 996,7 hPa 0,0 l/m 0 min 2 min 83 W/m 60,8 km/h (7 Bft) 95,65 %
18.01.2018 13:12 6,1 C 6,1 C 4,4 C 82 % 15 lf 996,6 hPa 0,0 l/m 0 min 2 min 103 W/m 67,6 km/h (8 Bft) 97,44 %
18.01.2018 13:14 5,9 C 6,7 C 4,4 C 83 % 15 lf 996,7 hPa 0,0 l/m 0 min 2 min 122 W/m 60,8 km/h (7 Bft) 97,83 %
18.01.2018 13:16 5,9 C 7,2 C 4,4 C 84 % 15 lf 997,0 hPa 0,0 l/m 2 min 2 min 187 W/m 56,3 km/h (7 Bft) 98,00 %
18.01.2018 13:18 5,9 C 6,7 C 4,4 C 84 % 15 lf 996,9 hPa 0,0 l/m 0 min 2 min 131 W/m 45,1 km/h (6 Bft) 97,87 %
18.01.2018 13:20 5,9 C 6,7 C 5,0 C 84 % 9 lf 997,0 hPa 0,0 l/m 0 min 2 min 162 W/m 60,8 km/h (7 Bft) 97,87 %
18.01.2018 13:22 5,9 C 7,2 C 5,0 C 85 % 1 lf 997,0 hPa 0,0 l/m 2 min 2 min 212 W/m 49,6 km/h (6 Bft) 95,65 %
18.01.2018 13:24 5,9 C 6,7 C 5,0 C 85 % 2 lf 997,1 hPa 0,0 l/m 0 min 2 min 119 W/m 45,1 km/h (6 Bft) 100,00 %
18.01.2018 13:26 5,9 C 6,7 C 5,0 C 85 % 12 lf 997,1 hPa 0,0 l/m 0 min 0 min 91 W/m 54,1 km/h (7 Bft) 97,87 %
18.01.2018 13:28 5,9 C 6,1 C 4,4 C 85 % 15 lf 997,1 hPa 0,0 l/m 0 min 2 min 108 W/m 42,8 km/h (6 Bft) 100,00 %
18.01.2018 13:30 5,9 C 6,1 C 4,4 C 85 % 8 lf 997,1 hPa 0,0 l/m 0 min 2 min 112 W/m 38,3 km/h (5 Bft) 97,87 %
18.01.2018 13:32 5,9 C 6,1 C 4,4 C 85 % 9 lf 997,3 hPa 0,0 l/m 0 min 2 min 70 W/m 51,8 km/h (7 Bft) 97,37 %
18.01.2018 13:34 5,8 C 5,6 C 4,4 C 85 % 15 lf 997,4 hPa 0,0 l/m 0 min 2 min 75 W/m 56,3 km/h (7 Bft) 100,00 %
18.01.2018 13:36 5,8 C 5,6 C 3,9 C 85 % 15 lf 997,3 hPa 0,0 l/m 0 min 2 min 74 W/m 38,3 km/h (5 Bft) 100,00 %
18.01.2018 13:38 5,8 C 6,1 C 3,9 C 86 % 15 lf 997,4 hPa 0,0 l/m 0 min 2 min 101 W/m 51,8 km/h (7 Bft) 98,00 %
18.01.2018 13:40 5,7 C 6,1 C 3,9 C 86 % 15 lf 997,4 hPa 0,0 l/m 0 min 2 min 92 W/m 45,1 km/h (6 Bft) 100,00 %
18.01.2018 13:42 5,7 C 5,6 C 3,9 C 86 % 15 lf 997,6 hPa 0,0 l/m 0 min 2 min 65 W/m 54,1 km/h (7 Bft) 95,74 %
18.01.2018 13:44 5,7 C 5,6 C 3,9 C 86 % 15 lf 997,7 hPa 0,0 l/m 0 min 2 min 70 W/m 49,6 km/h (6 Bft) 97,83 %
18.01.2018 13:46 5,7 C 5,6 C 3,9 C 86 % 15 lf 997,6 hPa 0,0 l/m 0 min 2 min 82 W/m 47,3 km/h (6 Bft) 95,74 %
18.01.2018 13:48 5,7 C 5,6 C 3,9 C 86 % 15 lf 997,7 hPa 0,0 l/m 0 min 2 min 68 W/m 47,3 km/h (6 Bft) 97,87 %
18.01.2018 13:50 5,6 C 5,6 C 3,9 C 87 % 15 lf 997,6 hPa 0,0 l/m 0 min 2 min 64 W/m 42,8 km/h (6 Bft) 95,74 %
18.01.2018 13:52 5,6 C 5,6 C 3,9 C 87 % 15 lf 997,7 hPa 0,0 l/m 0 min 2 min 59 W/m 45,1 km/h (6 Bft) 95,74 %
18.01.2018 13:54 5,6 C 5,6 C 3,9 C 87 % 15 lf 997,8 hPa 0,0 l/m 0 min 2 min 73 W/m 40,6 km/h (6 Bft) 98,11 %
18.01.2018 13:56 5,6 C 5,6 C 3,9 C 87 % 15 lf 997,8 hPa 0,0 l/m 0 min 2 min 102 W/m 45,1 km/h (6 Bft) 97,87 %
18.01.2018 13:58 5,6 C 6,1 C 4,4 C 87 % 15 lf 997,9 hPa 0,0 l/m 2 min 2 min 163 W/m 38,3 km/h (5 Bft) 95,65 %
18.01.2018 14:00 5,6 C 6,1 C 4,4 C 87 % 15 lf 997,9 hPa 0,0 l/m 0 min 2 min 111 W/m 33,8 km/h (5 Bft) 89,36 %
18.01.2018 14:02 5,7 C 6,1 C 3,9 C 87 % 15 lf 998,1 hPa 0,0 l/m 0 min 2 min 88 W/m 60,8 km/h (7 Bft) 91,49 %
18.01.2018 14:04 5,6 C 5,6 C 3,9 C 87 % 15 lf 998,1 hPa 0,0 l/m 0 min 2 min 81 W/m 49,6 km/h (6 Bft) 97,87 %
18.01.2018 14:06 5,6 C 5,6 C 3,9 C 87 % 15 lf 998,0 hPa 0,0 l/m 0 min 2 min 75 W/m 47,3 km/h (6 Bft) 95,83 %
18.01.2018 14:08 5,6 C 5,6 C 3,9 C 87 % 15 lf 998,1 hPa 0,0 l/m 0 min 2 min 78 W/m 56,3 km/h (7 Bft) 93,48 %
18.01.2018 14:10 5,6 C 5,6 C 3,9 C 87 % 15 lf 998,2 hPa 0,0 l/m 0 min 2 min 101 W/m 45,1 km/h (6 Bft) 92,31 %
18.01.2018 14:12 5,6 C 6,1 C 3,9 C 87 % 15 lf 998,3 hPa 0,0 l/m 0 min 2 min 131 W/m 38,3 km/h (5 Bft) 89,13 %
18.01.2018 14:14 5,7 C 6,7 C 4,4 C 87 % 15 lf 998,3 hPa 0,0 l/m 2 min 2 min 181 W/m 38,3 km/h (5 Bft) 91,84 %
18.01.2018 14:16 5,7 C 6,7 C 4,4 C 86 % 15 lf 998,3 hPa 0,0 l/m 0 min 2 min 124 W/m 47,3 km/h (6 Bft) 91,49 %
18.01.2018 14:18 5,8 C 6,7 C 4,4 C 86 % 15 lf 998,3 hPa 0,0 l/m 0 min 2 min 114 W/m 36,0 km/h (5 Bft) 89,36 %
18.01.2018 14:20 5,8 C 6,1 C 4,4 C 86 % 15 lf 998,3 hPa 0,0 l/m 0 min 2 min 97 W/m 40,6 km/h (6 Bft) 93,48 %
18.01.2018 14:22 5,8 C 6,1 C 3,9 C 86 % 15 lf 998,4 hPa 0,0 l/m 0 min 2 min 71 W/m 40,6 km/h (6 Bft) 89,36 %
18.01.2018 14:24 5,8 C 6,1 C 3,9 C 86 % 15 lf 998,4 hPa 0,0 l/m 0 min 2 min 53 W/m 45,1 km/h (6 Bft) 96,30 %
18.01.2018 14:26 5,7 C 6,1 C 3,9 C 86 % 15 lf 998,5 hPa 0,0 l/m 0 min 2 min 50 W/m 24,8 km/h (4 Bft) 92,11 %
18.01.2018 14:28 5,7 C 5,6 C 3,9 C 86 % 15 lf 998,5 hPa 0,0 l/m 0 min 2 min 52 W/m 40,6 km/h (6 Bft) 93,88 %
18.01.2018 14:30 5,7 C 5,6 C 3,9 C 86 % 15 lf 998,5 hPa 0,0 l/m 0 min 2 min 55 W/m 45,1 km/h (6 Bft) 93,62 %
18.01.2018 14:32 5,7 C 6,1 C 3,9 C 85 % 15 lf 998,6 hPa 0,0 l/m 0 min 2 min 59 W/m 36,0 km/h (5 Bft) 93,48 %
18.01.2018 14:34 5,7 C 6,1 C 3,9 C 85 % 15 lf 998,6 hPa 0,0 l/m 0 min 2 min 51 W/m 29,3 km/h (5 Bft) 91,49 %
18.01.2018 14:36 5,7 C 6,1 C 4,4 C 85 % 15 lf 998,7 hPa 0,0 l/m 0 min 2 min 47 W/m 38,3 km/h (5 Bft) 95,74 %
18.01.2018 14:38 5,7 C 6,1 C 4,4 C 84 % 13 lf 998,7 hPa 0,0 l/m 0 min 2 min 47 W/m 40,6 km/h (6 Bft) 95,74 %
18.01.2018 14:40 5,7 C 6,1 C 4,4 C 84 % 3 lf 998,9 hPa 0,0 l/m 0 min 2 min 50 W/m 42,8 km/h (6 Bft) 95,74 %
18.01.2018 14:42 5,7 C 6,1 C 4,4 C 84 % 3 lf 998,8 hPa 0,0 l/m 0 min 2 min 43 W/m 45,1 km/h (6 Bft) 95,74 %
18.01.2018 14:44 5,7 C 6,1 C 4,4 C 83 % 0 lf 998,9 hPa 0,0 l/m 0 min 2 min 47 W/m 36,0 km/h (5 Bft) 97,83 %
18.01.2018 14:46 5,7 C 6,1 C 4,4 C 83 % 0 lf 999,0 hPa 0,0 l/m 0 min 2 min 60 W/m 42,8 km/h (6 Bft) 95,74 %
18.01.2018 14:48 5,7 C 6,1 C 4,4 C 83 % 0 lf 998,8 hPa 0,0 l/m 0 min 2 min 67 W/m 47,3 km/h (6 Bft) 95,74 %
18.01.2018 14:50 5,8 C 6,1 C 5,0 C 82 % 0 lf 998,9 hPa 0,0 l/m 0 min 0 min 71 W/m 51,8 km/h (7 Bft) 97,87 %
18.01.2018 14:52 5,8 C 6,1 C 5,0 C 82 % 0 lf 999,0 hPa 0,0 l/m 0 min 0 min 71 W/m 56,3 km/h (7 Bft) 89,36 %
18.01.2018 14:54 5,8 C 6,1 C 5,0 C 81 % 0 lf 999,0 hPa 0,0 l/m 0 min 0 min 80 W/m 36,0 km/h (5 Bft) 96,30 %
18.01.2018 14:56 5,8 C 6,1 C 5,0 C 81 % 0 lf 999,1 hPa 0,0 l/m 0 min 0 min 81 W/m 54,1 km/h (7 Bft) 100,00 %
18.01.2018 14:58 5,9 C 6,1 C 5,0 C 81 % 0 lf 999,0 hPa 0,0 l/m 0 min 0 min 84 W/m 42,8 km/h (6 Bft) 100,00 %
18.01.2018 15:00 5,9 C 6,1 C 5,0 C 80 % 0 lf 999,1 hPa 0,0 l/m 0 min 2 min 90 W/m 45,1 km/h (6 Bft) 97,87 %
18.01.2018 15:02 5,9 C 6,1 C 5,0 C 80 % 0 lf 999,1 hPa 0,0 l/m 0 min 0 min 98 W/m 45,1 km/h (6 Bft) 98,15 %
18.01.2018 15:04 5,9 C 6,7 C 5,0 C 80 % 0 lf 999,2 hPa 0,0 l/m 0 min 0 min 112 W/m 40,6 km/h (6 Bft) 100,00 %
18.01.2018 15:06 5,9 C 6,7 C 5,0 C 79 % 0 lf 999,2 hPa 0,0 l/m 0 min 0 min 94 W/m 38,3 km/h (5 Bft) 100,00 %
18.01.2018 15:08 5,9 C 6,7 C 5,0 C 79 % 0 lf 999,2 hPa 0,0 l/m 0 min 0 min 91 W/m 51,8 km/h (7 Bft) 95,74 %
18.01.2018 15:10 5,9 C 6,7 C 5,0 C 79 % 0 lf 999,2 hPa 0,0 l/m 0 min 0 min 88 W/m 40,6 km/h (6 Bft) 100,00 %
18.01.2018 15:12 6,0 C 6,1 C 5,0 C 79 % 0 lf 999,2 hPa 0,0 l/m 0 min 0 min 77 W/m 45,1 km/h (6 Bft) 100,00 %
18.01.2018 15:14 5,9 C 6,1 C 5,0 C 79 % 0 lf 999,2 hPa 0,0 l/m 0 min 0 min 52 W/m 40,6 km/h (6 Bft) 100,00 %
18.01.2018 15:16 5,9 C 6,1 C 5,0 C 79 % 0 lf 999,5 hPa 0,0 l/m 0 min 0 min 46 W/m 47,3 km/h (6 Bft) 100,00 %
18.01.2018 15:18 5,9 C 6,1 C 4,4 C 79 % 0 lf 999,3 hPa 0,0 l/m 0 min 0 min 42 W/m 36,0 km/h (5 Bft) 97,87 %
18.01.2018 15:20 5,9 C 6,1 C 4,4 C 79 % 0 lf 999,5 hPa 0,0 l/m 0 min 2 min 40 W/m 40,6 km/h (6 Bft) 100,00 %
18.01.2018 15:22 5,9 C 6,1 C 4,4 C 79 % 0 lf 999,5 hPa 0,0 l/m 0 min 0 min 47 W/m 36,0 km/h (5 Bft) 100,00 %
18.01.2018 15:24 5,9 C 6,1 C 4,4 C 79 % 0 lf 999,5 hPa 0,0 l/m 0 min 0 min 44 W/m 36,0 km/h (5 Bft) 97,87 %
18.01.2018 15:26 5,9 C 6,1 C 4,4 C 80 % 0 lf 999,5 hPa 0,0 l/m 0 min 0 min 36 W/m 45,1 km/h (6 Bft) 100,00 %
18.01.2018 15:28 5,9 C 6,1 C 4,4 C 80 % 0 lf 999,5 hPa 0,0 l/m 0 min 0 min 32 W/m 31,5 km/h (5 Bft) 100,00 %
18.01.2018 15:30 5,9 C 6,1 C 4,4 C 80 % 0 lf 999,6 hPa 0,0 l/m 0 min 0 min 26 W/m 38,3 km/h (5 Bft) 100,00 %
18.01.2018 15:32 5,9 C 5,6 C 4,4 C 80 % 0 lf 999,6 hPa 0,0 l/m 0 min 0 min 24 W/m 31,5 km/h (5 Bft) 100,00 %
18.01.2018 15:34 5,8 C 5,6 C 4,4 C 80 % 0 lf 999,6 hPa 0,0 l/m 0 min 0 min 20 W/m 36,0 km/h (5 Bft) 100,00 %
18.01.2018 15:36 5,8 C 5,6 C 4,4 C 80 % 0 lf 999,6 hPa 0,0 l/m 0 min 0 min 18 W/m 24,8 km/h (4 Bft) 97,87 %
18.01.2018 15:38 5,8 C 5,6 C 4,4 C 80 % 0 lf 999,6 hPa 0,0 l/m 0 min 0 min 18 W/m 31,5 km/h (5 Bft) 97,87 %
18.01.2018 15:40 5,8 C 5,6 C 4,4 C 80 % 0 lf 999,7 hPa 0,0 l/m 0 min 0 min 21 W/m 38,3 km/h (5 Bft) 97,87 %
18.01.2018 15:42 5,8 C 5,6 C 4,4 C 80 % 0 lf 999,7 hPa 0,0 l/m 0 min 0 min 22 W/m 27,0 km/h (4 Bft) 100,00 %
18.01.2018 15:44 5,8 C 5,6 C 4,4 C 80 % 0 lf 999,7 hPa 0,0 l/m 0 min 0 min 27 W/m 29,3 km/h (5 Bft) 97,83 %
18.01.2018 15:46 5,8 C 5,6 C 4,4 C 81 % 0 lf 999,7 hPa 0,0 l/m 0 min 0 min 30 W/m 31,5 km/h (5 Bft) 100,00 %
18.01.2018 15:48 5,8 C 5,6 C 4,4 C 81 % 0 lf 999,9 hPa 0,0 l/m 0 min 0 min 24 W/m 29,3 km/h (5 Bft) 97,87 %
18.01.2018 15:50 5,8 C 5,6 C 4,4 C 81 % 0 lf 999,9 hPa 0,0 l/m 0 min 0 min 32 W/m 24,8 km/h (4 Bft) 97,87 %
18.01.2018 15:52 5,8 C 5,6 C 4,4 C 81 % 0 lf 999,8 hPa 0,0 l/m 0 min 0 min 33 W/m 27,0 km/h (4 Bft) 95,92 %
18.01.2018 15:54 5,8 C 5,6 C 4,4 C 81 % 0 lf 999,9 hPa 0,0 l/m 0 min 0 min 33 W/m 36,0 km/h (5 Bft) 97,83 %
18.01.2018 15:56 5,8 C 6,1 C 4,4 C 81 % 0 lf 999,8 hPa 0,0 l/m 0 min 0 min 32 W/m 29,3 km/h (5 Bft) 97,87 %
18.01.2018 15:58 5,8 C 6,1 C 4,4 C 80 % 0 lf 1000,0 hPa 0,0 l/m 0 min 0 min 32 W/m 38,3 km/h (5 Bft) 95,74 %
18.01.2018 16:00 5,8 C 6,1 C 4,4 C 80 % 0 lf 999,9 hPa 0,0 l/m 0 min 0 min 28 W/m 36,0 km/h (5 Bft) 97,87 %
18.01.2018 16:02 5,8 C 6,1 C 4,4 C 80 % 0 lf 1000,0 hPa 0,0 l/m 0 min 0 min 22 W/m 29,3 km/h (5 Bft) 97,87 %
18.01.2018 16:04 5,8 C 5,6 C 4,4 C 80 % 0 lf 1000,1 hPa 0,0 l/m 0 min 0 min 19 W/m 24,8 km/h (4 Bft) 95,74 %
18.01.2018 16:06 5,8 C 5,6 C 4,4 C 80 % 0 lf 1000,1 hPa 0,0 l/m 0 min 0 min 16 W/m 40,6 km/h (6 Bft) 95,65 %
18.01.2018 16:08 5,8 C 5,6 C 4,4 C 80 % 0 lf 1000,2 hPa 0,0 l/m 0 min 0 min 14 W/m 38,3 km/h (5 Bft) 95,74 %
18.01.2018 16:10 5,8 C 5,6 C 4,4 C 79 % 0 lf 1000,2 hPa 0,0 l/m 0 min 0 min 14 W/m 36,0 km/h (5 Bft) 95,83 %
18.01.2018 16:12 5,8 C 5,6 C 4,4 C 79 % 0 lf 1000,2 hPa 0,0 l/m 0 min 0 min 17 W/m 45,1 km/h (6 Bft) 93,62 %
18.01.2018 16:14 5,8 C 5,6 C 4,4 C 79 % 0 lf 1000,2 hPa 0,0 l/m 0 min 0 min 24 W/m 36,0 km/h (5 Bft) 91,49 %
18.01.2018 16:16 5,8 C 5,6 C 4,4 C 79 % 0 lf 1000,2 hPa 0,0 l/m 0 min 0 min 20 W/m 24,8 km/h (4 Bft) 91,49 %
18.01.2018 16:18 5,8 C 5,6 C 4,4 C 79 % 0 lf 1000,3 hPa 0,0 l/m 0 min 0 min 13 W/m 24,8 km/h (4 Bft) 95,65 %
18.01.2018 16:20 5,8 C 5,6 C 4,4 C 79 % 0 lf 1000,3 hPa 0,0 l/m 0 min 0 min 13 W/m 29,3 km/h (5 Bft) 95,74 %
18.01.2018 16:22 5,8 C 5,6 C 4,4 C 80 % 0 lf 1000,3 hPa 0,0 l/m 0 min 0 min 18 W/m 24,8 km/h (4 Bft) 93,62 %
18.01.2018 16:24 5,8 C 5,6 C 4,4 C 79 % 1 lf 1000,3 hPa 0,0 l/m 0 min 0 min 16 W/m 29,3 km/h (5 Bft) 93,62 %
18.01.2018 16:26 5,8 C 5,6 C 4,4 C 79 % 0 lf 1000,3 hPa 0,0 l/m 0 min 0 min 12 W/m 36,0 km/h (5 Bft) 93,62 %
18.01.2018 16:28 5,8 C 5,6 C 4,4 C 80 % 0 lf 1000,4 hPa 0,0 l/m 0 min 0 min 13 W/m 31,5 km/h (5 Bft) 95,65 %
18.01.2018 16:30 5,8 C 5,6 C 4,4 C 80 % 0 lf 1000,3 hPa 0,0 l/m 0 min 0 min 13 W/m 33,8 km/h (5 Bft) 93,62 %
18.01.2018 16:32 5,8 C 5,6 C 4,4 C 80 % 0 lf 1000,2 hPa 0,0 l/m 0 min 0 min 12 W/m 20,3 km/h (4 Bft) 91,49 %
18.01.2018 16:34 5,8 C 5,6 C 4,4 C 79 % 0 lf 1000,3 hPa 0,0 l/m 0 min 0 min 12 W/m 33,8 km/h (5 Bft) 93,62 %
18.01.2018 16:36 5,8 C 5,6 C 4,4 C 79 % 0 lf 1000,3 hPa 0,0 l/m 0 min 0 min 12 W/m 36,0 km/h (5 Bft) 95,74 %
18.01.2018 16:38 5,7 C 5,6 C 4,4 C 79 % 0 lf 1000,4 hPa 0,0 l/m 0 min 0 min 12 W/m 22,5 km/h (4 Bft) 89,36 %
18.01.2018 16:40 5,7 C 5,6 C 4,4 C 78 % 0 lf 1000,4 hPa 0,0 l/m 0 min 0 min 10 W/m 31,5 km/h (5 Bft) 93,48 %
18.01.2018 16:42 5,7 C 5,6 C 4,4 C 78 % 0 lf 1000,3 hPa 0,0 l/m 0 min 0 min 9 W/m 33,8 km/h (5 Bft) 95,74 %
18.01.2018 16:44 5,7 C 5,6 C 4,4 C 77 % 0 lf 1000,4 hPa 0,0 l/m 0 min 0 min 7 W/m 47,3 km/h (6 Bft) 95,74 %
18.01.2018 16:46 5,7 C 5,6 C 4,4 C 77 % 0 lf 1000,4 hPa 0,0 l/m 0 min 0 min 7 W/m 22,5 km/h (4 Bft) 95,74 %
18.01.2018 16:48 5,8 C 5,6 C 4,4 C 77 % 2 lf 1000,5 hPa 0,0 l/m 0 min 0 min 7 W/m 36,0 km/h (5 Bft) 93,62 %
18.01.2018 16:50 5,8 C 5,6 C 4,4 C 77 % 2 lf 1000,5 hPa 0,0 l/m 0 min 0 min 5 W/m 27,0 km/h (4 Bft) 93,62 %
18.01.2018 16:52 5,8 C 5,6 C 3,9 C 78 % 3 lf 1000,5 hPa 0,0 l/m 0 min 0 min 5 W/m 36,0 km/h (5 Bft) 89,13 %
18.01.2018 16:54 5,7 C 5,6 C 3,9 C 78 % 0 lf 1000,5 hPa 0,0 l/m 0 min 0 min 5 W/m 38,3 km/h (5 Bft) 93,62 %
18.01.2018 16:56 5,7 C 5,6 C 3,9 C 78 % 0 lf 1000,5 hPa 0,0 l/m 0 min 0 min 5 W/m 31,5 km/h (5 Bft) 89,36 %
18.01.2018 16:58 5,7 C 5,6 C 3,9 C 78 % 0 lf 1000,6 hPa 0,0 l/m 0 min 0 min 5 W/m 36,0 km/h (5 Bft) 91,49 %
18.01.2018 17:00 5,7 C 5,6 C 3,9 C 78 % 0 lf 1000,6 hPa 0,0 l/m 0 min 0 min 5 W/m 22,5 km/h (4 Bft) 93,62 %
18.01.2018 17:02 5,7 C 5,6 C 3,9 C 78 % 0 lf 1000,6 hPa 0,0 l/m 0 min 0 min 4 W/m 29,3 km/h (5 Bft) 95,74 %
18.01.2018 17:04 5,7 C 5,6 C 3,9 C 78 % 0 lf 1000,6 hPa 0,0 l/m 0 min 0 min 0 W/m 15,8 km/h (3 Bft) 91,30 %
18.01.2018 17:06 5,7 C 5,6 C 3,9 C 78 % 0 lf 1000,6 hPa 0,0 l/m 0 min 0 min 0 W/m 18,0 km/h (3 Bft) 93,62 %
18.01.2018 17:08 5,7 C 5,0 C 3,9 C 78 % 0 lf 1000,6 hPa 0,0 l/m 0 min 0 min 0 W/m 15,8 km/h (3 Bft) 97,87 %
18.01.2018 17:10 5,6 C 5,0 C 3,9 C 79 % 0 lf 1000,6 hPa 0,0 l/m 0 min 0 min 0 W/m 18,0 km/h (3 Bft) 95,74 %
18.01.2018 17:12 5,6 C 5,0 C 3,9 C 79 % 0 lf 1000,5 hPa 0,0 l/m 0 min 0 min 0 W/m 20,3 km/h (4 Bft) 91,49 %
18.01.2018 17:14 5,6 C 5,0 C 3,9 C 79 % 0 lf 1000,6 hPa 0,0 l/m 0 min 0 min 0 W/m 15,8 km/h (3 Bft) 93,62 %
18.01.2018 17:16 5,6 C 5,0 C 3,9 C 79 % 0 lf 1000,6 hPa 0,0 l/m 0 min 0 min 0 W/m 13,5 km/h (3 Bft) 95,65 %
18.01.2018 17:18 5,6 C 5,0 C 3,9 C 79 % 0 lf 1000,6 hPa 0,0 l/m 0 min 0 min 0 W/m 18,0 km/h (3 Bft) 95,74 %
18.01.2018 17:20 5,6 C 5,0 C 3,9 C 79 % 0 lf 1000,6 hPa 0,0 l/m 0 min 0 min 0 W/m 15,8 km/h (3 Bft) 95,74 %
18.01.2018 17:22 5,6 C 5,0 C 3,9 C 79 % 0 lf 1000,7 hPa 0,0 l/m 0 min 0 min 0 W/m 11,3 km/h (2 Bft) 95,35 %
18.01.2018 17:24 5,5 C 5,0 C 3,9 C 79 % 0 lf 1000,7 hPa 0,0 l/m 0 min 0 min 0 W/m 20,3 km/h (4 Bft) 94,00 %
18.01.2018 17:26 5,5 C 5,0 C 3,9 C 80 % 0 lf 1000,7 hPa 0,0 l/m 0 min 0 min 0 W/m 22,5 km/h (4 Bft) 97,87 %
18.01.2018 17:28 5,5 C 5,0 C 3,9 C 80 % 0 lf 1000,8 hPa 0,0 l/m 0 min 0 min 0 W/m 20,3 km/h (4 Bft) 97,87 %
18.01.2018 17:30 5,5 C 5,0 C 3,9 C 80 % 0 lf 1000,8 hPa 0,0 l/m 0 min 0 min 0 W/m 22,5 km/h (4 Bft) 97,83 %
18.01.2018 17:32 5,5 C 5,0 C 3,9 C 80 % 0 lf 1000,9 hPa 0,0 l/m 0 min 0 min 0 W/m 22,5 km/h (4 Bft) 97,87 %
18.01.2018 17:34 5,4 C 5,0 C 3,9 C 81 % 0 lf 1000,9 hPa 0,0 l/m 0 min 0 min 0 W/m 22,5 km/h (4 Bft) 95,74 %
18.01.2018 17:36 5,4 C 5,0 C 3,9 C 81 % 0 lf 1000,9 hPa 0,0 l/m 0 min 0 min 0 W/m 20,3 km/h (4 Bft) 97,87 %
18.01.2018 17:38 5,4 C 5,0 C 3,9 C 81 % 0 lf 1000,9 hPa 0,0 l/m 0 min 0 min 0 W/m 18,0 km/h (3 Bft) 100,00 %
18.01.2018 17:40 5,4 C 5,0 C 3,9 C 81 % 0 lf 1001,0 hPa 0,0 l/m 0 min 0 min 0 W/m 20,3 km/h (4 Bft) 100,00 %
18.01.2018 17:42 5,4 C 5,0 C 3,9 C 81 % 0 lf 1000,9 hPa 0,0 l/m 0 min 0 min 0 W/m 22,5 km/h (4 Bft) 100,00 %
18.01.2018 17:44 5,4 C 5,0 C 3,9 C 81 % 0 lf 1001,0 hPa 0,0 l/m 0 min 0 min 0 W/m 20,3 km/h (4 Bft) 95,74 %
18.01.2018 17:46 5,3 C 5,0 C 3,9 C 81 % 0 lf 1001,0 hPa 0,0 l/m 0 min 0 min 0 W/m 20,3 km/h (4 Bft) 100,00 %
18.01.2018 17:48 5,3 C 5,0 C 3,9 C 81 % 0 lf 1001,0 hPa 0,0 l/m 0 min 0 min 0 W/m 20,3 km/h (4 Bft) 97,87 %
18.01.2018 17:50 5,3 C 5,0 C 3,9 C 81 % 0 lf 1001,1 hPa 0,0 l/m 0 min 0 min 0 W/m 20,3 km/h (4 Bft) 100,00 %
18.01.2018 17:52 5,3 C 5,0 C 3,9 C 81 % 0 lf 1001,0 hPa 0,0 l/m 0 min 0 min 0 W/m 20,3 km/h (4 Bft) 97,87 %
18.01.2018 17:54 5,3 C 5,0 C 3,9 C 81 % 0 lf 1001,0 hPa 0,0 l/m 0 min 0 min 0 W/m 11,3 km/h (2 Bft) 97,83 %
18.01.2018 17:56 5,3 C 5,0 C 3,9 C 82 % 0 lf 1000,9 hPa 0,0 l/m 0 min 0 min 0 W/m 18,0 km/h (3 Bft) 100,00 %
18.01.2018 17:58 5,3 C 5,0 C 3,3 C 82 % 0 lf 1000,9 hPa 0,0 l/m 0 min 0 min 0 W/m 15,8 km/h (3 Bft) 93,62 %
18.01.2018 18:00 5,3 C 5,0 C 3,3 C 82 % 0 lf 1001,0 hPa 0,0 l/m 0 min 0 min 0 W/m 24,8 km/h (4 Bft) 97,87 %
18.01.2018 18:02 5,3 C 5,0 C 3,3 C 82 % 0 lf 1001,0 hPa 0,0 l/m 0 min 0 min 0 W/m 24,8 km/h (4 Bft) 95,74 %
18.01.2018 18:04 5,2 C 5,0 C 3,3 C 82 % 0 lf 1000,8 hPa 0,0 l/m 0 min 0 min 0 W/m 31,5 km/h (5 Bft) 97,83 %
18.01.2018 18:06 5,2 C 4,4 C 3,3 C 82 % 0 lf 1000,8 hPa 0,0 l/m 0 min 0 min 0 W/m 20,3 km/h (4 Bft) 97,92 %
18.01.2018 18:08 5,2 C 4,4 C 3,3 C 82 % 0 lf 1000,9 hPa 0,0 l/m 0 min 0 min 0 W/m 24,8 km/h (4 Bft) 97,87 %
18.01.2018 18:10 5,2 C 5,0 C 3,3 C 82 % 0 lf 1000,9 hPa 0,0 l/m 0 min 0 min 0 W/m 33,8 km/h (5 Bft) 97,87 %
18.01.2018 18:12 5,2 C 5,0 C 3,3 C 82 % 0 lf 1001,0 hPa 0,0 l/m 0 min 0 min 0 W/m 22,5 km/h (4 Bft) 95,74 %
18.01.2018 18:14 5,1 C 5,0 C 3,3 C 82 % 0 lf 1001,0 hPa 0,0 l/m 0 min 0 min 0 W/m 27,0 km/h (4 Bft) 95,74 %
18.01.2018 18:16 5,1 C 5,0 C 3,3 C 82 % 0 lf 1000,9 hPa 0,0 l/m 0 min 0 min 0 W/m 20,3 km/h (4 Bft) 91,30 %
18.01.2018 18:18 5,1 C 5,0 C 3,3 C 82 % 0 lf 1001,0 hPa 0,0 l/m 0 min 0 min 0 W/m 27,0 km/h (4 Bft) 97,87 %
18.01.2018 18:20 5,1 C 5,0 C 3,3 C 83 % 0 lf 1001,1 hPa 0,0 l/m 0 min 0 min 0 W/m 24,8 km/h (4 Bft) 97,87 %
18.01.2018 18:22 5,1 C 5,0 C 3,3 C 83 % 12 lf 1001,2 hPa 0,0 l/m 0 min 2 min 0 W/m 24,8 km/h (4 Bft) 95,74 %
18.01.2018 18:24 5,1 C 5,0 C 3,3 C 83 % 15 lf 1001,3 hPa 0,0 l/m 0 min 2 min 0 W/m 31,5 km/h (5 Bft) 100,00 %
18.01.2018 18:26 5,1 C 4,4 C 2,8 C 84 % 15 lf 1001,3 hPa 0,0 l/m 0 min 2 min 0 W/m 36,0 km/h (5 Bft) 97,87 %
18.01.2018 18:28 5,1 C 4,4 C 2,8 C 84 % 15 lf 1001,4 hPa 0,0 l/m 0 min 2 min 0 W/m 36,0 km/h (5 Bft) 97,83 %
18.01.2018 18:30 5,1 C 3,9 C 2,8 C 85 % 15 lf 1001,4 hPa 0,0 l/m 0 min 2 min 0 W/m 29,3 km/h (5 Bft) 97,87 %
18.01.2018 18:32 5,0 C 3,9 C 2,2 C 85 % 15 lf 1001,3 hPa 0,0 l/m 0 min 2 min 0 W/m 20,3 km/h (4 Bft) 97,87 %
18.01.2018 18:34 4,9 C 3,9 C 2,2 C 86 % 15 lf 1001,3 hPa 0,0 l/m 0 min 2 min 0 W/m 22,5 km/h (4 Bft) 100,00 %
18.01.2018 18:36 4,9 C 3,9 C 2,2 C 86 % 15 lf 1001,3 hPa 0,2 l/m 0 min 2 min 0 W/m 22,5 km/h (4 Bft) 100,00 %
18.01.2018 18:38 4,8 C 3,3 C 2,2 C 86 % 15 lf 1001,3 hPa 0,0 l/m 0 min 2 min 0 W/m 33,8 km/h (5 Bft) 97,87 %
18.01.2018 18:40 4,8 C 3,3 C 2,2 C 87 % 15 lf 1001,3 hPa 0,0 l/m 0 min 2 min 0 W/m 29,3 km/h (5 Bft) 97,83 %
18.01.2018 18:42 4,7 C 3,3 C 2,2 C 87 % 15 lf 1001,3 hPa 0,0 l/m 0 min 2 min 0 W/m 24,8 km/h (4 Bft) 100,00 %
18.01.2018 18:44 4,7 C 3,3 C 2,2 C 87 % 15 lf 1001,3 hPa 0,0 l/m 0 min 2 min 0 W/m 22,5 km/h (4 Bft) 100,00 %
18.01.2018 18:46 4,6 C 3,3 C 2,2 C 87 % 15 lf 1001,4 hPa 0,0 l/m 0 min 2 min 0 W/m 31,5 km/h (5 Bft) 95,74 %
18.01.2018 18:48 4,5 C 3,3 C 2,2 C 87 % 15 lf 1001,3 hPa 0,0 l/m 0 min 2 min 0 W/m 40,6 km/h (6 Bft) 97,87 %
18.01.2018 18:50 4,4 C 3,3 C 2,2 C 88 % 15 lf 1001,3 hPa 0,0 l/m 0 min 2 min 0 W/m 20,3 km/h (4 Bft) 100,00 %
18.01.2018 18:52 4,4 C 3,3 C 2,2 C 88 % 15 lf 1001,3 hPa 0,0 l/m 0 min 2 min 0 W/m 24,8 km/h (4 Bft) 100,00 %
18.01.2018 18:54 4,3 C 3,3 C 2,2 C 88 % 15 lf 1001,3 hPa 0,0 l/m 0 min 0 min 0 W/m 24,8 km/h (4 Bft) 100,00 %
18.01.2018 18:56 4,3 C 3,3 C 2,2 C 89 % 15 lf 1001,3 hPa 0,0 l/m 0 min 0 min 0 W/m 15,8 km/h (3 Bft) 100,00 %
18.01.2018 18:58 4,2 C 3,3 C 2,2 C 89 % 15 lf 1001,3 hPa 0,0 l/m 0 min 0 min 0 W/m 18,0 km/h (3 Bft) 97,87 %
18.01.2018 19:00 4,2 C 3,3 C 2,2 C 89 % 15 lf 1001,3 hPa 0,0 l/m 0 min 0 min 0 W/m 20,3 km/h (4 Bft) 97,87 %
18.01.2018 19:02 4,2 C 3,3 C 2,2 C 89 % 15 lf 1001,3 hPa 0,0 l/m 0 min 0 min 0 W/m 13,5 km/h (3 Bft) 100,00 %
18.01.2018 19:04 4,2 C 3,3 C 2,2 C 90 % 15 lf 1001,3 hPa 0,0 l/m 0 min 0 min 0 W/m 13,5 km/h (3 Bft) 100,00 %
18.01.2018 19:06 4,2 C 3,3 C 2,2 C 90 % 15 lf 1001,2 hPa 0,2 l/m 0 min 0 min 0 W/m 13,5 km/h (3 Bft) 100,00 %
18.01.2018 19:08 4,1 C 3,3 C 1,7 C 90 % 15 lf 1001,2 hPa 0,0 l/m 0 min 0 min 0 W/m 13,5 km/h (3 Bft) 100,00 %
18.01.2018 19:10 4,1 C 2,8 C 1,7 C 90 % 15 lf 1001,3 hPa 0,0 l/m 0 min 0 min 0 W/m 15,8 km/h (3 Bft) 100,00 %
18.01.2018 19:12 4,1 C 2,8 C 1,7 C 90 % 15 lf 1001,2 hPa 0,0 l/m 0 min 0 min 0 W/m 13,5 km/h (3 Bft) 100,00 %
18.01.2018 19:14 4,0 C 2,8 C 1,7 C 90 % 15 lf 1001,2 hPa 0,0 l/m 0 min 0 min 0 W/m 18,0 km/h (3 Bft) 100,00 %
18.01.2018 19:16 4,0 C 2,8 C 1,7 C 90 % 15 lf 1001,3 hPa 0,0 l/m 0 min 0 min 0 W/m 9,0 km/h (2 Bft) 95,74 %
18.01.2018 19:18 3,9 C 2,8 C 1,7 C 90 % 15 lf 1001,3 hPa 0,0 l/m 0 min 0 min 0 W/m 13,5 km/h (3 Bft) 100,00 %
18.01.2018 19:20 3,9 C 2,8 C 1,7 C 90 % 15 lf 1001,2 hPa 0,0 l/m 0 min 0 min 0 W/m 15,8 km/h (3 Bft) 100,00 %
18.01.2018 19:22 3,9 C 2,8 C 1,7 C 91 % 15 lf 1001,3 hPa 0,0 l/m 0 min 0 min 0 W/m 11,3 km/h (2 Bft) 95,74 %
18.01.2018 19:24 3,8 C 2,8 C 1,7 C 90 % 15 lf 1001,3 hPa 0,0 l/m 0 min 0 min 0 W/m 15,8 km/h (3 Bft) 91,49 %
18.01.2018 19:26 3,8 C 2,8 C 1,7 C 90 % 15 lf 1001,2 hPa 0,0 l/m 0 min 0 min 0 W/m 11,3 km/h (2 Bft) 100,00 %
18.01.2018 19:28 3,8 C 2,8 C 1,1 C 91 % 15 lf 1001,2 hPa 0,0 l/m 0 min 0 min 0 W/m 15,8 km/h (3 Bft) 97,87 %
18.01.2018 19:30 3,7 C 2,2 C 1,1 C 91 % 15 lf 1001,2 hPa 0,0 l/m 0 min 0 min 0 W/m 11,3 km/h (2 Bft) 97,87 %
18.01.2018 19:32 3,7 C 2,2 C 1,1 C 91 % 15 lf 1001,2 hPa 0,0 l/m 0 min 0 min 0 W/m 9,0 km/h (2 Bft) 93,62 %
18.01.2018 19:34 3,7 C 2,2 C 1,1 C 91 % 15 lf 1001,2 hPa 0,0 l/m 0 min 0 min 0 W/m 6,8 km/h (2 Bft) 95,74 %
18.01.2018 19:36 3,7 C 2,2 C 1,1 C 91 % 15 lf 1001,2 hPa 0,0 l/m 0 min 0 min 0 W/m 9,0 km/h (2 Bft) 95,74 %
18.01.2018 19:38 3,7 C 2,2 C 1,1 C 91 % 15 lf 1001,2 hPa 0,0 l/m 0 min 0 min 0 W/m 9,0 km/h (2 Bft) 93,48 %
18.01.2018 19:40 3,6 C 2,2 C 1,1 C 91 % 15 lf 1001,2 hPa 0,0 l/m 0 min 0 min 0 W/m 9,0 km/h (2 Bft) 93,62 %
18.01.2018 19:42 3,6 C 2,2 C 1,1 C 91 % 15 lf 1001,2 hPa 0,0 l/m 0 min 0 min 0 W/m 6,8 km/h (2 Bft) 93,62 %
18.01.2018 19:44 3,5 C 1,7 C 1,1 C 91 % 15 lf 1001,3 hPa 0,0 l/m 0 min 0 min 0 W/m 6,8 km/h (2 Bft) 93,62 %
18.01.2018 19:46 3,5 C 1,7 C 1,1 C 91 % 15 lf 1001,3 hPa 0,0 l/m 0 min 0 min 0 W/m 6,8 km/h (2 Bft) 95,74 %
18.01.2018 19:48 3,5 C 1,7 C 1,1 C 91 % 15 lf 1001,3 hPa 0,0 l/m 0 min 0 min 0 W/m 9,0 km/h (2 Bft) 95,74 %
18.01.2018 19:50 3,4 C 1,7 C 1,1 C 91 % 15 lf 1001,3 hPa 0,0 l/m 0 min 0 min 0 W/m 6,8 km/h (2 Bft) 93,48 %
18.01.2018 19:52 3,4 C 1,7 C 1,1 C 91 % 15 lf 1001,3 hPa 0,0 l/m 0 min 0 min 0 W/m 6,8 km/h (2 Bft) 93,62 %
18.01.2018 19:54 3,4 C 1,7 C 0,6 C 91 % 15 lf 1001,3 hPa 0,0 l/m 0 min 0 min 0 W/m 9,0 km/h (2 Bft) 93,62 %
18.01.2018 19:56 3,3 C 1,7 C 0,6 C 91 % 15 lf 1001,3 hPa 0,0 l/m 0 min 0 min 0 W/m 9,0 km/h (2 Bft) 91,49 %
18.01.2018 19:58 3,3 C 1,7 C 0,6 C 91 % 15 lf 1001,2 hPa 0,0 l/m 0 min 0 min 0 W/m 9,0 km/h (2 Bft) 91,49 %
18.01.2018 20:00 3,3 C 1,7 C 0,6 C 91 % 15 lf 1001,3 hPa 0,0 l/m 0 min 0 min 0 W/m 11,3 km/h (2 Bft) 93,62 %
18.01.2018 20:02 3,2 C 1,7 C 0,6 C 91 % 15 lf 1001,3 hPa 0,0 l/m 0 min 0 min 0 W/m 9,0 km/h (2 Bft) 93,48 %
18.01.2018 20:04 3,2 C 1,7 C 0,6 C 91 % 15 lf 1001,3 hPa 0,0 l/m 0 min 0 min 0 W/m 9,0 km/h (2 Bft) 89,36 %
18.01.2018 20:06 3,2 C 1,7 C 0,6 C 91 % 15 lf 1001,3 hPa 0,0 l/m 0 min 0 min 0 W/m 9,0 km/h (2 Bft) 93,62 %
18.01.2018 20:08 3,2 C 1,7 C 0,6 C 91 % 15 lf 1001,3 hPa 0,0 l/m 0 min 0 min 0 W/m 9,0 km/h (2 Bft) 89,36 %
18.01.2018 20:10 3,1 C 1,7 C 0,6 C 91 % 15 lf 1001,3 hPa 0,0 l/m 0 min 0 min 0 W/m 9,0 km/h (2 Bft) 89,36 %
18.01.2018 20:12 3,1 C 1,7 C 0,6 C 91 % 15 lf 1001,3 hPa 0,0 l/m 0 min 0 min 0 W/m 6,8 km/h (2 Bft) 89,13 %
18.01.2018 20:14 3,1 C 1,7 C 0,6 C 91 % 15 lf 1001,3 hPa 0,0 l/m 0 min 0 min 0 W/m 9,0 km/h (2 Bft) 91,49 %
18.01.2018 20:16 3,0 C 1,7 C 0,0 C 91 % 15 lf 1001,3 hPa 0,0 l/m 0 min 0 min 0 W/m 9,0 km/h (2 Bft) 93,62 %
18.01.2018 20:18 2,9 C 1,7 C 0,0 C 91 % 15 lf 1001,3 hPa 0,0 l/m 0 min 0 min 0 W/m 6,8 km/h (2 Bft) 93,62 %
18.01.2018 20:20 2,9 C 1,7 C 0,0 C 91 % 15 lf 1001,3 hPa 0,0 l/m 0 min 0 min 0 W/m 6,8 km/h (2 Bft) 97,87 %
18.01.2018 20:22 2,9 C 1,7 C 0,0 C 91 % 15 lf 1001,3 hPa 0,0 l/m 0 min 0 min 0 W/m 11,3 km/h (2 Bft) 97,87 %
18.01.2018 20:24 2,9 C 1,7 C 0,6 C 92 % 15 lf 1001,3 hPa 0,0 l/m 0 min 0 min 0 W/m 13,5 km/h (3 Bft) 95,65 %
18.01.2018 20:26 2,8 C 1,7 C 0,6 C 92 % 15 lf 1001,4 hPa 0,0 l/m 0 min 0 min 0 W/m 13,5 km/h (3 Bft) 95,74 %
18.01.2018 20:28 2,8 C 1,7 C 0,6 C 92 % 15 lf 1001,4 hPa 0,0 l/m 0 min 0 min 0 W/m 9,0 km/h (2 Bft) 95,74 %
18.01.2018 20:30 2,8 C 1,7 C 0,6 C 92 % 15 lf 1001,4 hPa 0,0 l/m 0 min 0 min 0 W/m 9,0 km/h (2 Bft) 97,87 %
18.01.2018 20:32 2,7 C 1,7 C 0,6 C 92 % 15 lf 1001,3 hPa 0,0 l/m 0 min 0 min 0 W/m 6,8 km/h (2 Bft) 93,62 %
18.01.2018 20:34 2,7 C 1,7 C 0,6 C 92 % 15 lf 1001,3 hPa 0,0 l/m 0 min 0 min 0 W/m 9,0 km/h (2 Bft) 97,87 %
18.01.2018 20:36 2,7 C 1,7 C 0,6 C 92 % 15 lf 1001,4 hPa 0,0 l/m 0 min 0 min 0 W/m 9,0 km/h (2 Bft) 97,83 %
18.01.2018 20:38 2,7 C 1,7 C 0,6 C 92 % 15 lf 1001,3 hPa 0,0 l/m 0 min 0 min 0 W/m 11,3 km/h (2 Bft) 95,74 %
18.01.2018 20:40 2,7 C 1,7 C 0,6 C 92 % 15 lf 1001,4 hPa 0,0 l/m 0 min 0 min 0 W/m 6,8 km/h (2 Bft) 97,87 %
18.01.2018 20:42 2,7 C 1,7 C 0,6 C 92 % 15 lf 1001,3 hPa 0,0 l/m 0 min 0 min 0 W/m 9,0 km/h (2 Bft) 95,74 %
18.01.2018 20:44 2,7 C 1,7 C 0,6 C 92 % 15 lf 1001,3 hPa 0,0 l/m 0 min 0 min 0 W/m 4,5 km/h (1 Bft) 95,74 %
18.01.2018 20:46 2,6 C 1,7 C 0,6 C 92 % 15 lf 1001,3 hPa 0,0 l/m 0 min 0 min 0 W/m 9,0 km/h (2 Bft) 95,65 %
18.01.2018 20:48 2,6 C 1,7 C 0,6 C 92 % 15 lf 1001,3 hPa 0,0 l/m 0 min 0 min 0 W/m 6,8 km/h (2 Bft) 97,87 %
18.01.2018 20:50 2,6 C 1,7 C 0,6 C 93 % 15 lf 1001,3 hPa 0,0 l/m 0 min 0 min 0 W/m 6,8 km/h (2 Bft) 97,87 %
18.01.2018 20:52 2,6 C 1,7 C 0,6 C 92 % 15 lf 1001,3 hPa 0,0 l/m 0 min 0 min 0 W/m 9,0 km/h (2 Bft) 97,87 %
18.01.2018 20:54 2,6 C 1,7 C 0,6 C 92 % 15 lf 1001,3 hPa 0,0 l/m 0 min 0 min 0 W/m 9,0 km/h (2 Bft) 93,62 %
18.01.2018 20:56 2,5 C 1,7 C 0,6 C 92 % 15 lf 1001,3 hPa 0,0 l/m 0 min 0 min 0 W/m 9,0 km/h (2 Bft) 97,87 %
18.01.2018 20:58 2,5 C 1,7 C 0,6 C 93 % 15 lf 1001,3 hPa 0,0 l/m 0 min 0 min 0 W/m 9,0 km/h (2 Bft) 97,87 %
18.01.2018 21:00 2,5 C 1,7 C 0,6 C 93 % 15 lf 1001,3 hPa 0,0 l/m 0 min 0 min 0 W/m 6,8 km/h (2 Bft) 97,83 %
18.01.2018 21:02 2,4 C 1,7 C 0,6 C 93 % 15 lf 1001,3 hPa 0,0 l/m 0 min 0 min 0 W/m 6,8 km/h (2 Bft) 95,74 %
18.01.2018 21:04 2,4 C 1,7 C 0,6 C 93 % 15 lf 1001,4 hPa 0,0 l/m 0 min 0 min 0 W/m 4,5 km/h (1 Bft) 95,74 %
18.01.2018 21:06 2,4 C 1,7 C 0,6 C 93 % 15 lf 1001,4 hPa 0,0 l/m 0 min 0 min 0 W/m 6,8 km/h (2 Bft) 97,87 %
18.01.2018 21:08 2,4 C 1,7 C 0,6 C 93 % 15 lf 1001,4 hPa 0,0 l/m 0 min 0 min 0 W/m 9,0 km/h (2 Bft) 97,87 %
18.01.2018 21:10 2,4 C 1,7 C 0,6 C 93 % 15 lf 1001,3 hPa 0,0 l/m 0 min 0 min 0 W/m 6,8 km/h (2 Bft) 97,83 %
18.01.2018 21:12 2,4 C 1,7 C 0,6 C 93 % 15 lf 1001,3 hPa 0,0 l/m 0 min 0 min 0 W/m 6,8 km/h (2 Bft) 97,87 %
18.01.2018 21:14 2,4 C 1,7 C 0,6 C 93 % 15 lf 1001,3 hPa 0,0 l/m 0 min 0 min 0 W/m 6,8 km/h (2 Bft) 97,87 %
18.01.2018 21:16 2,4 C 1,7 C 0,6 C 93 % 15 lf 1001,3 hPa 0,0 l/m 0 min 0 min 0 W/m 4,5 km/h (1 Bft) 100,00 %
18.01.2018 21:18 2,3 C 1,7 C 0,6 C 93 % 15 lf 1001,3 hPa 0,0 l/m 0 min 0 min 0 W/m 2,3 km/h (1 Bft) 100,00 %
18.01.2018 21:20 2,3 C 1,7 C 0,6 C 93 % 15 lf 1001,3 hPa 0,0 l/m 0 min 0 min 0 W/m 4,5 km/h (1 Bft) 100,00 %
18.01.2018 21:22 2,3 C 2,2 C 0,6 C 93 % 15 lf 1001,3 hPa 0,0 l/m 0 min 0 min 0 W/m 9,0 km/h (2 Bft) 100,00 %
18.01.2018 21:24 2,3 C 2,2 C 0,6 C 93 % 15 lf 1001,4 hPa 0,0 l/m 0 min 0 min 0 W/m 6,8 km/h (2 Bft) 100,00 %
18.01.2018 21:26 2,3 C 2,2 C 1,1 C 93 % 15 lf 1001,3 hPa 0,0 l/m 0 min 0 min 0 W/m 9,0 km/h (2 Bft) 95,74 %
18.01.2018 21:28 2,3 C 2,2 C 1,1 C 93 % 15 lf 1001,2 hPa 0,0 l/m 0 min 0 min 0 W/m 6,8 km/h (2 Bft) 97,87 %
18.01.2018 21:30 2,3 C 2,2 C 1,1 C 93 % 15 lf 1001,2 hPa 0,0 l/m 0 min 0 min 0 W/m 9,0 km/h (2 Bft) 100,00 %
18.01.2018 21:32 2,3 C 2,2 C 1,1 C 93 % 15 lf 1001,3 hPa 0,0 l/m 0 min 0 min 0 W/m 6,8 km/h (2 Bft) 100,00 %
18.01.2018 21:34 2,3 C 2,2 C 1,1 C 93 % 15 lf 1001,2 hPa 0,0 l/m 0 min 0 min 0 W/m 6,8 km/h (2 Bft) 100,00 %
18.01.2018 21:36 2,3 C 2,2 C 1,1 C 93 % 15 lf 1001,3 hPa 0,0 l/m 0 min 0 min 0 W/m 11,3 km/h (2 Bft) 97,87 %
18.01.2018 21:38 2,3 C 2,2 C 1,1 C 93 % 15 lf 1001,3 hPa 0,0 l/m 0 min 0 min 0 W/m 9,0 km/h (2 Bft) 97,87 %
18.01.2018 21:40 2,3 C 2,2 C 1,1 C 93 % 15 lf 1001,2 hPa 0,0 l/m 0 min 0 min 0 W/m 6,8 km/h (2 Bft) 97,87 %
18.01.2018 21:42 2,3 C 2,2 C 0,6 C 93 % 15 lf 1001,2 hPa 0,0 l/m 0 min 0 min 0 W/m 6,8 km/h (2 Bft) 97,87 %
18.01.2018 21:44 2,3 C 2,2 C 0,6 C 93 % 15 lf 1001,2 hPa 0,0 l/m 0 min 0 min 0 W/m 9,0 km/h (2 Bft) 97,87 %
18.01.2018 21:46 2,3 C 2,2 C 0,6 C 94 % 15 lf 1001,2 hPa 0,0 l/m 0 min 0 min 0 W/m 6,8 km/h (2 Bft) 95,65 %
18.01.2018 21:48 2,3 C 2,2 C 0,6 C 94 % 15 lf 1001,2 hPa 0,0 l/m 0 min 0 min 0 W/m 9,0 km/h (2 Bft) 97,87 %
18.01.2018 21:50 2,4 C 2,2 C 0,6 C 93 % 15 lf 1001,2 hPa 0,0 l/m 0 min 0 min 0 W/m 6,8 km/h (2 Bft) 96,00 %
18.01.2018 21:52 2,4 C 2,2 C 0,6 C 94 % 15 lf 1001,2 hPa 0,0 l/m 0 min 0 min 0 W/m 6,8 km/h (2 Bft) 93,62 %
18.01.2018 21:54 2,4 C 2,2 C 0,6 C 94 % 15 lf 1001,2 hPa 0,0 l/m 0 min 0 min 0 W/m 9,0 km/h (2 Bft) 97,87 %
18.01.2018 21:56 2,4 C 2,2 C 1,1 C 94 % 15 lf 1001,2 hPa 0,0 l/m 0 min 0 min 0 W/m 9,0 km/h (2 Bft) 97,83 %
18.01.2018 21:58 2,4 C 2,2 C 1,1 C 94 % 15 lf 1001,3 hPa 0,0 l/m 0 min 0 min 0 W/m 6,8 km/h (2 Bft) 97,87 %
18.01.2018 22:00 2,4 C 2,8 C 1,1 C 94 % 15 lf 1001,3 hPa 0,0 l/m 0 min 0 min 0 W/m 6,8 km/h (2 Bft) 95,74 %
18.01.2018 22:02 2,4 C 2,8 C 1,1 C 94 % 15 lf 1001,3 hPa 0,0 l/m 0 min 0 min 0 W/m 4,5 km/h (1 Bft) 97,87 %
18.01.2018 22:04 2,4 C 2,8 C 1,1 C 94 % 15 lf 1001,3 hPa 0,0 l/m 0 min 0 min 0 W/m 4,5 km/h (1 Bft) 95,74 %
18.01.2018 22:06 2,4 C 2,8 C 1,1 C 94 % 15 lf 1001,2 hPa 0,0 l/m 0 min 0 min 0 W/m 0,0 km/h (0 Bft) 97,87 %
18.01.2018 22:08 2,5 C 2,8 C 1,1 C 94 % 15 lf 1001,2 hPa 0,0 l/m 0 min 0 min 0 W/m 9,0 km/h (2 Bft) 95,65 %
18.01.2018 22:10 2,5 C 2,8 C 1,1 C 94 % 15 lf 1001,2 hPa 0,0 l/m 0 min 0 min 0 W/m 9,0 km/h (2 Bft) 97,87 %
18.01.2018 22:12 2,5 C 2,8 C 1,7 C 94 % 15 lf 1001,2 hPa 0,0 l/m 0 min 0 min 0 W/m 9,0 km/h (2 Bft) 97,87 %
18.01.2018 22:14 2,5 C 2,8 C 1,1 C 94 % 15 lf 1001,2 hPa 0,0 l/m 0 min 0 min 0 W/m 4,5 km/h (1 Bft) 95,74 %
18.01.2018 22:16 2,6 C 2,8 C 1,1 C 94 % 15 lf 1001,2 hPa 0,0 l/m 0 min 0 min 0 W/m 6,8 km/h (2 Bft) 95,74 %
18.01.2018 22:18 2,6 C 2,8 C 1,1 C 94 % 15 lf 1001,2 hPa 0,0 l/m 0 min 0 min 0 W/m 6,8 km/h (2 Bft) 95,74 %
18.01.2018 22:20 2,6 C 2,2 C 1,1 C 94 % 15 lf 1001,2 hPa 0,0 l/m 0 min 0 min 0 W/m 4,5 km/h (1 Bft) 97,83 %
18.01.2018 22:22 2,6 C 2,2 C 1,1 C 94 % 15 lf 1001,1 hPa 0,0 l/m 0 min 0 min 0 W/m 9,0 km/h (2 Bft) 95,74 %
18.01.2018 22:24 2,6 C 2,8 C 1,1 C 94 % 15 lf 1001,1 hPa 0,0 l/m 0 min 0 min 0 W/m 11,3 km/h (2 Bft) 97,87 %
18.01.2018 22:26 2,6 C 2,8 C 1,1 C 94 % 15 lf 1001,0 hPa 0,0 l/m 0 min 0 min 0 W/m 9,0 km/h (2 Bft) 95,74 %
18.01.2018 22:28 2,6 C 2,8 C 1,1 C 94 % 15 lf 1001,0 hPa 0,0 l/m 0 min 0 min 0 W/m 6,8 km/h (2 Bft) 100,00 %
18.01.2018 22:30 2,7 C 2,8 C 1,1 C 94 % 15 lf 1000,9 hPa 0,0 l/m 0 min 0 min 0 W/m 9,0 km/h (2 Bft) 91,49 %
18.01.2018 22:32 2,7 C 2,8 C 1,1 C 94 % 15 lf 1000,9 hPa 0,0 l/m 0 min 0 min 0 W/m 6,8 km/h (2 Bft) 95,65 %
18.01.2018 22:34 2,7 C 2,8 C 1,1 C 94 % 15 lf 1000,9 hPa 0,0 l/m 0 min 0 min 0 W/m 9,0 km/h (2 Bft) 95,74 %
18.01.2018 22:36 2,7 C 2,2 C 1,1 C 94 % 15 lf 1000,9 hPa 0,0 l/m 0 min 0 min 0 W/m 4,5 km/h (1 Bft) 91,49 %
18.01.2018 22:38 2,7 C 2,8 C 1,1 C 94 % 15 lf 1000,9 hPa 0,0 l/m 0 min 0 min 0 W/m 9,0 km/h (2 Bft) 94,74 %
18.01.2018 22:40 2,7 C 2,8 C 1,1 C 94 % 15 lf 1000,9 hPa 0,0 l/m 0 min 0 min 0 W/m 9,0 km/h (2 Bft) 95,74 %
18.01.2018 22:42 2,7 C 2,8 C 1,1 C 94 % 15 lf 1000,9 hPa 0,0 l/m 0 min 0 min 0 W/m 9,0 km/h (2 Bft) 93,62 %
18.01.2018 22:44 2,7 C 2,8 C 1,1 C 94 % 15 lf 1000,9 hPa 0,0 l/m 0 min 0 min 0 W/m 9,0 km/h (2 Bft) 95,74 %
18.01.2018 22:46 2,7 C 2,8 C 1,1 C 94 % 15 lf 1001,0 hPa 0,0 l/m 0 min 0 min 0 W/m 6,8 km/h (2 Bft) 95,83 %
18.01.2018 22:48 2,7 C 2,8 C 1,1 C 94 % 15 lf 1001,0 hPa 0,0 l/m 0 min 0 min 0 W/m 6,8 km/h (2 Bft) 95,74 %
18.01.2018 22:50 2,7 C 2,2 C 1,1 C 94 % 15 lf 1000,9 hPa 0,0 l/m 0 min 0 min 0 W/m 6,8 km/h (2 Bft) 95,74 %
18.01.2018 22:52 2,7 C 2,2 C 1,1 C 94 % 15 lf 1000,9 hPa 0,0 l/m 0 min 0 min 0 W/m 6,8 km/h (2 Bft) 97,92 %
18.01.2018 22:54 2,7 C 2,2 C 1,1 C 94 % 15 lf 1001,0 hPa 0,0 l/m 0 min 0 min 0 W/m 9,0 km/h (2 Bft) 95,65 %
18.01.2018 22:56 2,7 C 2,2 C 1,1 C 94 % 15 lf 1001,0 hPa 0,0 l/m 0 min 0 min 0 W/m 9,0 km/h (2 Bft) 97,87 %
18.01.2018 22:58 2,7 C 2,2 C 1,1 C 94 % 15 lf 1001,2 hPa 0,0 l/m 0 min 0 min 0 W/m 9,0 km/h (2 Bft) 97,87 %
18.01.2018 23:00 2,7 C 2,8 C 1,1 C 94 % 15 lf 1001,2 hPa 0,0 l/m 0 min 0 min 0 W/m 9,0 km/h (2 Bft) 97,87 %
18.01.2018 23:02 2,7 C 2,8 C 1,1 C 94 % 15 lf 1001,1 hPa 0,0 l/m 0 min 0 min 0 W/m 6,8 km/h (2 Bft) 95,74 %
18.01.2018 23:04 2,7 C 2,8 C 1,1 C 94 % 15 lf 1001,2 hPa 0,0 l/m 0 min 0 min 0 W/m 11,3 km/h (2 Bft) 95,74 %
18.01.2018 23:06 2,7 C 2,8 C 1,1 C 94 % 15 lf 1001,2 hPa 0,0 l/m 0 min 0 min 0 W/m 9,0 km/h (2 Bft) 95,65 %
18.01.2018 23:08 2,7 C 2,8 C 1,1 C 94 % 15 lf 1001,3 hPa 0,0 l/m 0 min 0 min 0 W/m 6,8 km/h (2 Bft) 95,74 %
18.01.2018 23:10 2,7 C 2,8 C 1,1 C 95 % 15 lf 1001,3 hPa 0,0 l/m 0 min 0 min 0 W/m 6,8 km/h (2 Bft) 95,74 %
18.01.2018 23:12 2,7 C 2,8 C 1,1 C 95 % 15 lf 1001,3 hPa 0,0 l/m 0 min 0 min 0 W/m 6,8 km/h (2 Bft) 95,74 %
18.01.2018 23:14 2,7 C 2,8 C 1,1 C 95 % 15 lf 1001,3 hPa 0,0 l/m 0 min 0 min 0 W/m 9,0 km/h (2 Bft) 97,87 %
18.01.2018 23:16 2,7 C 2,8 C 1,1 C 95 % 15 lf 1001,4 hPa 0,0 l/m 0 min 0 min 0 W/m 9,0 km/h (2 Bft) 95,65 %
18.01.2018 23:18 2,7 C 2,8 C 1,1 C 95 % 15 lf 1001,3 hPa 0,0 l/m 0 min 0 min 0 W/m 9,0 km/h (2 Bft) 95,74 %
18.01.2018 23:20 2,7 C 2,8 C 1,1 C 95 % 15 lf 1001,3 hPa 0,0 l/m 0 min 0 min 0 W/m 6,8 km/h (2 Bft) 97,87 %
18.01.2018 23:22 2,7 C 2,8 C 1,1 C 95 % 15 lf 1001,3 hPa 0,0 l/m 0 min 0 min 0 W/m 9,0 km/h (2 Bft) 97,87 %
18.01.2018 23:24 2,7 C 2,8 C 1,1 C 95 % 15 lf 1001,3 hPa 0,0 l/m 0 min 0 min 0 W/m 9,0 km/h (2 Bft) 100,00 %
18.01.2018 23:26 2,7 C 2,8 C 1,1 C 95 % 15 lf 1001,3 hPa 0,0 l/m 0 min 0 min 0 W/m 6,8 km/h (2 Bft) 97,87 %
18.01.2018 23:28 2,7 C 2,8 C 1,1 C 95 % 15 lf 1001,3 hPa 0,0 l/m 0 min 0 min 0 W/m 9,0 km/h (2 Bft) 97,37 %
18.01.2018 23:30 2,7 C 2,8 C 1,1 C 95 % 15 lf 1001,3 hPa 0,0 l/m 0 min 0 min 0 W/m 9,0 km/h (2 Bft) 95,74 %
18.01.2018 23:32 2,7 C 2,8 C 1,1 C 95 % 15 lf 1001,3 hPa 0,0 l/m 0 min 0 min 0 W/m 6,8 km/h (2 Bft) 91,30 %
18.01.2018 23:34 2,7 C 2,8 C 1,1 C 95 % 15 lf 1001,4 hPa 0,0 l/m 0 min 0 min 0 W/m 9,0 km/h (2 Bft) 95,74 %
18.01.2018 23:36 2,7 C 2,8 C 1,1 C 95 % 15 lf 1001,4 hPa 0,0 l/m 0 min 0 min 0 W/m 6,8 km/h (2 Bft) 97,87 %
18.01.2018 23:38 2,7 C 2,8 C 1,1 C 95 % 15 lf 1001,4 hPa 0,0 l/m 0 min 0 min 0 W/m 9,0 km/h (2 Bft) 97,87 %
18.01.2018 23:40 2,7 C 2,8 C 1,1 C 95 % 15 lf 1001,4 hPa 0,0 l/m 0 min 0 min 0 W/m 6,8 km/h (2 Bft) 95,74 %
18.01.2018 23:42 2,8 C 2,8 C 1,1 C 95 % 15 lf 1001,4 hPa 0,0 l/m 0 min 0 min 0 W/m 6,8 km/h (2 Bft) 97,87 %
18.01.2018 23:44 2,8 C 2,8 C 1,1 C 95 % 15 lf 1001,4 hPa 0,0 l/m 0 min 0 min 0 W/m 4,5 km/h (1 Bft) 95,65 %
18.01.2018 23:46 2,8 C 2,8 C 1,1 C 95 % 15 lf 1001,4 hPa 0,0 l/m 0 min 0 min 0 W/m 9,0 km/h (2 Bft) 97,87 %
18.01.2018 23:48 2,8 C 2,8 C 1,1 C 95 % 15 lf 1001,4 hPa 0,0 l/m 0 min 0 min 0 W/m 9,0 km/h (2 Bft) 97,87 %
18.01.2018 23:50 2,8 C 2,8 C 1,1 C 95 % 15 lf 1001,4 hPa 0,0 l/m 0 min 0 min 0 W/m 6,8 km/h (2 Bft) 98,31 %
18.01.2018 23:52 2,8 C 2,8 C 1,1 C 95 % 15 lf 1001,5 hPa 0,0 l/m 0 min 0 min 0 W/m 6,8 km/h (2 Bft) 94,29 %
18.01.2018 23:54 2,8 C 2,2 C 1,1 C 95 % 15 lf 1001,5 hPa 0,0 l/m 0 min 0 min 0 W/m 6,8 km/h (2 Bft) 96,43 %
18.01.2018 23:56 2,8 C 2,8 C 1,1 C 95 % 15 lf 1001,5 hPa 0,0 l/m 0 min 0 min 0 W/m 11,3 km/h (2 Bft) 97,87 %
18.01.2018 23:58 2,8 C 2,8 C 1,1 C 95 % 15 lf 1001,5 hPa 0,0 l/m 0 min 0 min 0 W/m 13,5 km/h (3 Bft) 94,74 %
_ Min-Zeit 21:18 19:44 20:16 10:46 00:00 09:46 - - - - 22:06 14:12
Minimum _ 2,3 C 1,7 C 0,0 C 66 % 0 lf 987,7 hPa - - - - 0,0 km/h (0 Bft) 89,13 %
_ Max-Zeit 10:16 10:00 10:24 06:08 03:44 00:00 03:46 10:56 05:42 12:42 11:04 00:26
Maximum _ 10,3 C 10,6 C 8,9 C 96 % 15 lf 1006,2 hPa 0,2 l/m 2 min 5 min 226 W/m 110,4 km/h
SW (11 Bft)
100,00 %
Durchschnitt _ 5,2 C 4,9 C 3,5 C 87 % 8 lf 997,8 hPa #4,2 l/m #20 min. #8:51 h 72 W/m 35,7 km/h (5 Bft) 96,41 %
© 2018 W. Hausmann